Observation data for Wall on 12/08/2019      Previous  Date       Current Mesonet Observations  Soil Data  Daily Summary Page  Observations in Plain Language
KWA1 080600Z 23010KT 12/04 A3009 RMK A01 T01220041  RH  058%=      5-min Rain = 0
KWA1 080601Z 23011KT 12/04 A3009 RMK A01 T01220041  RH  058%=      5-min Rain = 0
KWA1 080602Z 23011KT 12/04 A3009 RMK A01 T01220041  RH  058%=      5-min Rain = 0
KWA1 080603Z 23011KT 12/04 A3009 RMK A01 T01220041  RH  058%=      5-min Rain = 0
KWA1 080604Z 23011KT 12/04 A3009 RMK A01 T01220041  RH  058%=      5-min Rain = 0
KWA1 080605Z 22011KT 12/04 A3009 RMK A01 T01230041  RH  057%=      5-min Rain = 0
KWA1 080606Z 23012KT 12/04 A3009 RMK A01 T01230041  RH  057%=      5-min Rain = 0
KWA1 080607Z 23011KT 12/04 A3009 RMK A01 T01230041  RH  057%=      5-min Rain = 0
KWA1 080608Z 22011KT 12/04 A3009 RMK A01 T01230041  RH  057%=      5-min Rain = 0
KWA1 080609Z 22011KT 12/04 A3009 RMK A01 T01230041  RH  057%=      5-min Rain = 0
KWA1 080610Z 22011KT 12/04 A3009 RMK A01 T01230041  RH  057%=      5-min Rain = 0
KWA1 080611Z 22010KT 12/04 A3009 RMK A01 T01230041  RH  057%=      5-min Rain = 0
KWA1 080612Z 22012KT 12/04 A3009 RMK A01 T01240041  RH  057%=      5-min Rain = 0
KWA1 080613Z 22011KT 12/04 A3009 RMK A01 T01240041  RH  057%=      5-min Rain = 0
KWA1 080614Z 22012KT 12/04 A3009 RMK A01 T01240041  RH  057%=      5-min Rain = 0
KWA1 080615Z 22012KT 13/04 A3009 RMK A01 T01250042  RH  057%=      5-min Rain = 0
KWA1 080616Z 22012KT 13/04 A3009 RMK A01 T01250042  RH  057%=      5-min Rain = 0
KWA1 080617Z 22012KT 13/04 A3009 RMK A01 T01250042  RH  057%=      5-min Rain = 0
KWA1 080618Z 22011KT 13/04 A3009 RMK A01 T01250042  RH  057%=      5-min Rain = 0
KWA1 080619Z 22011KT 12/04 A3009 RMK A01 T01240042  RH  057%=      5-min Rain = 0
KWA1 080620Z 22011KT 12/04 A3009 RMK A01 T01240042  RH  057%=      5-min Rain = 0
KWA1 080621Z 23011KT 13/04 A3009 RMK A01 T01250042  RH  057%=      5-min Rain = 0
KWA1 080622Z 22010KT 12/04 A3009 RMK A01 T01240042  RH  057%=      5-min Rain = 0
KWA1 080623Z 22011KT 13/04 A3009 RMK A01 T01250042  RH  057%=      5-min Rain = 0
KWA1 080624Z 23011KT 13/04 A3009 RMK A01 T01250042  RH  057%=      5-min Rain = 0
KWA1 080625Z 23011KT 13/04 A3009 RMK A01 T01250042  RH  057%=      5-min Rain = 0
KWA1 080626Z 23010KT 12/04 A3009 RMK A01 T01240042  RH  057%=      5-min Rain = 0
KWA1 080627Z 23010KT 12/04 A3009 RMK A01 T01240042  RH  057%=      5-min Rain = 0
KWA1 080628Z 22010KT 12/04 A3009 RMK A01 T01230042  RH  058%=      5-min Rain = 0
KWA1 080629Z 23010KT 12/04 A3009 RMK A01 T01240042  RH  058%=      5-min Rain = 0
KWA1 080630Z 23010KT 12/04 A3009 RMK A01 T01230042  RH  057%=      5-min Rain = 0
KWA1 080631Z 23010KT 12/04 A3009 RMK A01 T01240042  RH  058%=      5-min Rain = 0
KWA1 080632Z 22010KT 12/04 A3009 RMK A01 T01230042  RH  057%=      5-min Rain = 0
KWA1 080633Z 22011KT 12/04 A3009 RMK A01 T01240042  RH  057%=      5-min Rain = 0
KWA1 080634Z 23012KT 12/04 A3009 RMK A01 T01240042  RH  057%=      5-min Rain = 0
KWA1 080635Z 22009KT 13/04 A3009 RMK A01 T01250043  RH  057%=      5-min Rain = 0
KWA1 080636Z 22011KT 13/04 A3009 RMK A01 T01250043  RH  057%=      5-min Rain = 0
KWA1 080637Z 23009KT 13/04 A3009 RMK A01 T01260043  RH  057%=      5-min Rain = 0
KWA1 080638Z 22008KT 13/04 A3009 RMK A01 T01250042  RH  057%=      5-min Rain = 0
KWA1 080639Z 22010KT 12/04 A3009 RMK A01 T01240042  RH  057%=      5-min Rain = 0
KWA1 080640Z 23009KT 12/04 A3009 RMK A01 T01240043  RH  057%=      5-min Rain = 0
KWA1 080641Z 22011KT 13/04 A3009 RMK A01 T01250043  RH  057%=      5-min Rain = 0
KWA1 080642Z 22009KT 13/04 A3009 RMK A01 T01260043  RH  057%=      5-min Rain = 0
KWA1 080643Z 22009KT 13/04 A3009 RMK A01 T01250042  RH  057%=      5-min Rain = 0
KWA1 080644Z 22009KT 12/04 A3009 RMK A01 T01240042  RH  057%=      5-min Rain = 0
KWA1 080645Z 22009KT 12/04 A3009 RMK A01 T01240043  RH  058%=      5-min Rain = 0
KWA1 080646Z 23009KT 12/04 A3009 RMK A01 T01240043  RH  058%=      5-min Rain = 0
KWA1 080647Z 23009KT 12/04 A3008 RMK A01 T01230042  RH  058%=      5-min Rain = 0
KWA1 080648Z 23009KT 12/04 A3008 RMK A01 T01230042  RH  058%=      5-min Rain = 0
KWA1 080649Z 23009KT 12/04 A3008 RMK A01 T01230042  RH  058%=      5-min Rain = 0
KWA1 080650Z 23008KT 12/04 A3008 RMK A01 T01230042  RH  058%=      5-min Rain = 0
KWA1 080651Z 23008KT 12/04 A3008 RMK A01 T01230043  RH  058%=      5-min Rain = 0
KWA1 080652Z 23009KT 12/04 A3008 RMK A01 T01230042  RH  058%=      5-min Rain = 0
KWA1 080653Z 23009KT 12/04 A3008 RMK A01 T01230042  RH  058%=      5-min Rain = 0
KWA1 080654Z 23009KT 12/04 A3008 RMK A01 T01230043  RH  058%=      5-min Rain = 0
KWA1 080655Z 23009KT 12/04 A3008 RMK A01 T01230043  RH  058%=      5-min Rain = 0
KWA1 080656Z 23008KT 12/04 A3008 RMK A01 T01230043  RH  058%=      5-min Rain = 0
KWA1 080657Z 23009KT 12/04 A3008 RMK A01 T01230042  RH  058%=      5-min Rain = 0
KWA1 080658Z 23009KT 12/04 A3008 RMK A01 T01230043  RH  058%=      5-min Rain = 0
KWA1 080659Z 23008KT 12/04 A3008 RMK A01 T01230043  RH  058%=      5-min Rain = 0
KWA1 080700Z 23009KT 12/04 A3008 RMK A01 T01220042  RH  058%=      5-min Rain = 0
KWA1 080701Z 23010KT 12/04 A3008 RMK A01 T01220042  RH  058%=      5-min Rain = 0
KWA1 080702Z 23010KT 12/04 A3008 RMK A01 T01220042  RH  058%=      5-min Rain = 0
KWA1 080703Z 23009KT 12/04 A3008 RMK A01 T01220043  RH  058%=      5-min Rain = 0
KWA1 080704Z 23010KT 12/04 A3008 RMK A01 T01220043  RH  058%=      5-min Rain = 0
KWA1 080705Z 22009KT 12/04 A3008 RMK A01 T01220043  RH  058%=      5-min Rain = 0
KWA1 080706Z 22010KT 12/04 A3008 RMK A01 T01230043  RH  058%=      5-min Rain = 0
KWA1 080707Z 22009KT 12/04 A3008 RMK A01 T01230043  RH  058%=      5-min Rain = 0
KWA1 080708Z 22009KT 12/04 A3007 RMK A01 T01230043  RH  058%=      5-min Rain = 0
KWA1 080709Z 22009KT 12/04 A3007 RMK A01 T01230043  RH  058%=      5-min Rain = 0
KWA1 080710Z 23010KT 12/04 A3007 RMK A01 T01220043  RH  058%=      5-min Rain = 0
KWA1 080711Z 23010KT 12/04 A3007 RMK A01 T01220043  RH  058%=      5-min Rain = 0
KWA1 080712Z 23010KT 12/04 A3007 RMK A01 T01220043  RH  058%=      5-min Rain = 0
KWA1 080713Z 22009KT 12/04 A3007 RMK A01 T01220043  RH  058%=      5-min Rain = 0
KWA1 080714Z 22010KT 12/04 A3007 RMK A01 T01220043  RH  058%=      5-min Rain = 0
KWA1 080715Z 22010KT 12/04 A3007 RMK A01 T01220043  RH  058%=      5-min Rain = 0
KWA1 080716Z 22011KT 12/04 A3007 RMK A01 T01220043  RH  058%=      5-min Rain = 0
KWA1 080717Z 22010KT 12/04 A3007 RMK A01 T01230043  RH  058%=      5-min Rain = 0
KWA1 080718Z 22010KT 12/04 A3007 RMK A01 T01240043  RH  058%=      5-min Rain = 0
KWA1 080719Z 22010KT 12/04 A3007 RMK A01 T01240043  RH  058%=      5-min Rain = 0
KWA1 080720Z 22009KT 12/04 A3007 RMK A01 T01230043  RH  058%=      5-min Rain = 0
KWA1 080721Z 22011KT 12/04 A3007 RMK A01 T01220043  RH  058%=      5-min Rain = 0
KWA1 080722Z 22011KT 12/04 A3006 RMK A01 T01220043  RH  058%=      5-min Rain = 0
KWA1 080723Z 22011KT 12/04 A3006 RMK A01 T01230043  RH  058%=      5-min Rain = 0
KWA1 080724Z 22011KT 12/04 A3006 RMK A01 T01230043  RH  058%=      5-min Rain = 0
KWA1 080725Z 22009KT 12/04 A3006 RMK A01 T01230043  RH  058%=      5-min Rain = 0
KWA1 080726Z 22010KT 12/04 A3006 RMK A01 T01230043  RH  058%=      5-min Rain = 0
KWA1 080727Z 22011KT 12/04 A3006 RMK A01 T01230043  RH  058%=      5-min Rain = 0
KWA1 080728Z 22010KT 12/04 A3006 RMK A01 T01230043  RH  058%=      5-min Rain = 0
KWA1 080729Z 22010KT 12/04 A3006 RMK A01 T01230043  RH  058%=      5-min Rain = 0
KWA1 080730Z 22009KT 12/04 A3006 RMK A01 T01230043  RH  058%=      5-min Rain = 0
KWA1 080731Z 22009KT 12/04 A3006 RMK A01 T01230043  RH  058%=      5-min Rain = 0
KWA1 080732Z 22010KT 12/04 A3006 RMK A01 T01220043  RH  058%=      5-min Rain = 0
KWA1 080733Z 22009KT 12/04 A3006 RMK A01 T01220043  RH  059%=      5-min Rain = 0
KWA1 080734Z 22009KT 12/04 A3006 RMK A01 T01220044  RH  059%=      5-min Rain = 0
KWA1 080735Z 23008KT 12/04 A3006 RMK A01 T01220043  RH  059%=      5-min Rain = 0
KWA1 080736Z 22008KT 12/04 A3006 RMK A01 T01220044  RH  059%=      5-min Rain = 0
KWA1 080737Z 22009KT 12/04 A3006 RMK A01 T01210043  RH  059%=      5-min Rain = 0
KWA1 080738Z 22010KT 12/04 A3006 RMK A01 T01220044  RH  059%=      5-min Rain = 0
KWA1 080739Z 23008KT 12/04 A3006 RMK A01 T01240044  RH  058%=      5-min Rain = 0
KWA1 080740Z 22007KT 12/04 A3006 RMK A01 T01230043  RH  058%=      5-min Rain = 0
KWA1 080741Z 22007KT 12/04 A3006 RMK A01 T01220043  RH  059%=      5-min Rain = 0
KWA1 080742Z 23006KT 12/04 A3006 RMK A01 T01210043  RH  059%=      5-min Rain = 0
KWA1 080743Z 23006KT 12/04 A3006 RMK A01 T01200043  RH  059%=      5-min Rain = 0
KWA1 080744Z 24006KT 12/04 A3006 RMK A01 T01200043  RH  059%=      5-min Rain = 0
KWA1 080745Z 23005KT 12/04 A3006 RMK A01 T01200043  RH  059%=      5-min Rain = 0
KWA1 080746Z 23006KT 12/04 A3005 RMK A01 T01200043  RH  059%=      5-min Rain = 0
KWA1 080747Z 24006KT 12/04 A3005 RMK A01 T01200043  RH  059%=      5-min Rain = 0
KWA1 080748Z 24005KT 12/04 A3005 RMK A01 T01200043  RH  059%=      5-min Rain = 0
KWA1 080749Z 24004KT 12/04 A3005 RMK A01 T01200043  RH  059%=      5-min Rain = 0
KWA1 080750Z 23005KT 12/04 A3005 RMK A01 T01190043  RH  059%=      5-min Rain = 0
KWA1 080751Z 24004KT 12/04 A3006 RMK A01 T01190043  RH  060%=      5-min Rain = 0
KWA1 080752Z 26005KT 12/04 A3006 RMK A01 T01190043  RH  060%=      5-min Rain = 0
KWA1 080753Z 25005KT 12/04 A3006 RMK A01 T01190042  RH  059%=      5-min Rain = 0
KWA1 080754Z 26005KT 12/04 A3006 RMK A01 T01180042  RH  060%=      5-min Rain = 0
KWA1 080755Z 26005KT 12/04 A3006 RMK A01 T01180043  RH  060%=      5-min Rain = 0
KWA1 080756Z 25005KT 12/04 A3005 RMK A01 T01170043  RH  060%=      5-min Rain = 0
KWA1 080757Z 25004KT 12/04 A3005 RMK A01 T01170043  RH  060%=      5-min Rain = 0
KWA1 080758Z 25004KT 12/04 A3005 RMK A01 T01180043  RH  060%=      5-min Rain = 0
KWA1 080759Z 25005KT 12/04 A3005 RMK A01 T01180043  RH  060%=      5-min Rain = 0
KWA1 080800Z 25004KT 12/04 A3005 RMK A01 T01180043  RH  060%=      5-min Rain = 0
KWA1 080801Z 25004KT 12/04 A3005 RMK A01 T01180043  RH  060%=      5-min Rain = 0
KWA1 080802Z 25004KT 12/04 A3005 RMK A01 T01180043  RH  060%=      5-min Rain = 0
KWA1 080803Z 26004KT 12/04 A3005 RMK A01 T01180043  RH  060%=      5-min Rain = 0
KWA1 080804Z 25005KT 12/04 A3005 RMK A01 T01180043  RH  060%=      5-min Rain = 0
KWA1 080805Z 25004KT 12/04 A3005 RMK A01 T01190044  RH  060%=      5-min Rain = 0
KWA1 080806Z 25004KT 12/04 A3005 RMK A01 T01190043  RH  059%=      5-min Rain = 0
KWA1 080807Z 25004KT 12/04 A3005 RMK A01 T01190043  RH  060%=      5-min Rain = 0
KWA1 080808Z 24005KT 12/04 A3005 RMK A01 T01190043  RH  060%=      5-min Rain = 0
KWA1 080809Z 24006KT 12/04 A3005 RMK A01 T01190044  RH  060%=      5-min Rain = 0
KWA1 080810Z 25005KT 12/04 A3004 RMK A01 T01200044  RH  060%=      5-min Rain = 0
KWA1 080811Z 24007KT 12/04 A3004 RMK A01 T01220044  RH  059%=      5-min Rain = 0
KWA1 080812Z 24005KT 12/05 A3004 RMK A01 T01230045  RH  059%=      5-min Rain = 0
KWA1 080813Z 25006KT 12/05 A3004 RMK A01 T01240045  RH  058%=      5-min Rain = 0
KWA1 080814Z 25007KT 12/05 A3004 RMK A01 T01230045  RH  059%=      5-min Rain = 0
KWA1 080815Z 25005KT 12/05 A3004 RMK A01 T01230045  RH  059%=      5-min Rain = 0
KWA1 080816Z 25006KT 12/05 A3004 RMK A01 T01230045  RH  059%=      5-min Rain = 0
KWA1 080817Z 25006KT 12/04 A3004 RMK A01 T01220044  RH  059%=      5-min Rain = 0
KWA1 080818Z 25005KT 12/04 A3004 RMK A01 T01210044  RH  059%=      5-min Rain = 0
KWA1 080819Z 25007KT 12/05 A3004 RMK A01 T01210045  RH  060%=      5-min Rain = 0
KWA1 080820Z 25006KT 12/05 A3004 RMK A01 T01230046  RH  059%=      5-min Rain = 0
KWA1 080821Z 24007KT 12/05 A3004 RMK A01 T01240045  RH  059%=      5-min Rain = 0
KWA1 080822Z 24008KT 13/05 A3004 RMK A01 T01250046  RH  059%=      5-min Rain = 0
KWA1 080823Z 25007KT 13/05 A3004 RMK A01 T01260046  RH  058%=      5-min Rain = 0
KWA1 080824Z 24007KT 13/05 A3004 RMK A01 T01270047  RH  058%=      5-min Rain = 0
KWA1 080825Z 25006KT 13/05 A3004 RMK A01 T01270046  RH  058%=      5-min Rain = 0
KWA1 080826Z 26005KT 13/05 A3004 RMK A01 T01270046  RH  058%=      5-min Rain = 0
KWA1 080827Z 26006KT 13/05 A3004 RMK A01 T01270046  RH  058%=      5-min Rain = 0
KWA1 080828Z 26005KT 13/05 A3004 RMK A01 T01250045  RH  058%=      5-min Rain = 0
KWA1 080829Z 26005KT 12/05 A3004 RMK A01 T01230045  RH  059%=      5-min Rain = 0
KWA1 080830Z 26004KT 12/04 A3003 RMK A01 T01220044  RH  059%=      5-min Rain = 0
KWA1 080831Z 26005KT 12/05 A3003 RMK A01 T01210045  RH  060%=      5-min Rain = 0
KWA1 080832Z 26004KT 12/05 A3003 RMK A01 T01210045  RH  060%=      5-min Rain = 0
KWA1 080833Z 25005KT 12/05 A3003 RMK A01 T01210045  RH  060%=      5-min Rain = 0
KWA1 080834Z 26004KT 12/05 A3003 RMK A01 T01230046  RH  059%=      5-min Rain = 0
KWA1 080835Z 25004KT 12/05 A3003 RMK A01 T01240046  RH  059%=      5-min Rain = 0
KWA1 080836Z 26003KT 12/05 A3003 RMK A01 T01230045  RH  059%=      5-min Rain = 0
KWA1 080837Z 25004KT 12/04 A3003 RMK A01 T01210044  RH  059%=      5-min Rain = 0
KWA1 080838Z 27004KT 12/05 A3003 RMK A01 T01210045  RH  060%=      5-min Rain = 0
KWA1 080839Z 26004KT 12/05 A3003 RMK A01 T01210045  RH  060%=      5-min Rain = 0
KWA1 080840Z 27003KT 12/05 A3003 RMK A01 T01210045  RH  060%=      5-min Rain = 0
KWA1 080841Z 27004KT 12/05 A3003 RMK A01 T01210045  RH  060%=      5-min Rain = 0
KWA1 080842Z 25005KT 12/05 A3003 RMK A01 T01200045  RH  060%=      5-min Rain = 0
KWA1 080843Z 25004KT 12/05 A3003 RMK A01 T01230048  RH  060%=      5-min Rain = 0
KWA1 080844Z 26004KT 13/05 A3003 RMK A01 T01270048  RH  059%=      5-min Rain = 0
KWA1 080845Z 26003KT 13/05 A3003 RMK A01 T01280047  RH  058%=      5-min Rain = 0
KWA1 080846Z 26002KT 13/05 A3003 RMK A01 T01260046  RH  058%=      5-min Rain = 0
KWA1 080847Z 25002KT 13/05 A3003 RMK A01 T01250047  RH  059%=      5-min Rain = 0
KWA1 080848Z 28002KT 13/05 A3003 RMK A01 T01250046  RH  059%=      5-min Rain = 0
KWA1 080849Z 23003KT 12/05 A3003 RMK A01 T01240046  RH  059%=      5-min Rain = 0
KWA1 080850Z 23003KT 12/05 A3003 RMK A01 T01240047  RH  059%=      5-min Rain = 0
KWA1 080851Z 25002KT 13/05 A3003 RMK A01 T01250048  RH  059%=      5-min Rain = 0
KWA1 080852Z 23003KT 13/05 A3003 RMK A01 T01260048  RH  059%=      5-min Rain = 0
KWA1 080853Z 22004KT 13/05 A3003 RMK A01 T01270049  RH  059%=      5-min Rain = 0
KWA1 080854Z 22005KT 13/05 A3003 RMK A01 T01290049  RH  058%=      5-min Rain = 0
KWA1 080855Z 22005KT 13/05 A3003 RMK A01 T01310050  RH  058%=      5-min Rain = 0
KWA1 080856Z 22006KT 13/05 A3002 RMK A01 T01330050  RH  057%=      5-min Rain = 0
KWA1 080857Z 22008KT 13/05 A3002 RMK A01 T01330050  RH  057%=      5-min Rain = 0
KWA1 080858Z 23006KT 13/05 A3002 RMK A01 T01330050  RH  057%=      5-min Rain = 0
KWA1 080859Z 22004KT 13/05 A3002 RMK A01 T01330050  RH  057%=      5-min Rain = 0
KWA1 080900Z 22007G13KT 13/05 A3002 RMK A01 T01330049  RH  057%=      5-min Rain = 0
KWA1 080901Z 22007KT 13/05 A3002 RMK A01 T01340050  RH  057%=      5-min Rain = 0
KWA1 080902Z 22008KT 13/05 A3002 RMK A01 T01340050  RH  057%=      5-min Rain = 0
KWA1 080903Z 22007KT 13/05 A3002 RMK A01 T01340050  RH  057%=      5-min Rain = 0
KWA1 080904Z 21008KT 13/05 A3002 RMK A01 T01340050  RH  057%=      5-min Rain = 0
KWA1 080905Z 22007KT 13/05 A3002 RMK A01 T01340050  RH  057%=      5-min Rain = 0
KWA1 080906Z 21006KT 13/05 A3002 RMK A01 T01340050  RH  057%=      5-min Rain = 0
KWA1 080907Z 22007KT 13/05 A3002 RMK A01 T01330050  RH  057%=      5-min Rain = 0
KWA1 080908Z 21009KT 13/05 A3002 RMK A01 T01320050  RH  057%=      5-min Rain = 0
KWA1 080909Z 22007KT 13/05 A3002 RMK A01 T01320050  RH  057%=      5-min Rain = 0
KWA1 080910Z 22011KT 13/05 A3001 RMK A01 T01330050  RH  057%=      5-min Rain = 0
KWA1 080911Z 22008G15KT 13/05 A3001 RMK A01 T01330050  RH  057%=      5-min Rain = 0
KWA1 080912Z 22008KT 13/05 A3001 RMK A01 T01340050  RH  057%=      5-min Rain = 0
KWA1 080913Z 21007KT 13/05 A3001 RMK A01 T01340050  RH  057%=      5-min Rain = 0
KWA1 080914Z 22009KT 13/05 A3001 RMK A01 T01330050  RH  057%=      5-min Rain = 0
KWA1 080915Z 21009KT 13/05 A3001 RMK A01 T01330051  RH  057%=      5-min Rain = 0
KWA1 080916Z 22008KT 13/05 A3001 RMK A01 T01340051  RH  057%=      5-min Rain = 0
KWA1 080917Z 22008KT 13/05 A3001 RMK A01 T01340051  RH  057%=      5-min Rain = 0
KWA1 080918Z 21010KT 13/05 A3001 RMK A01 T01340051  RH  057%=      5-min Rain = 0
KWA1 080919Z 22008KT 14/05 A3001 RMK A01 T01350051  RH  057%=      5-min Rain = 0
KWA1 080920Z 23009KT 14/05 A3001 RMK A01 T01350051  RH  057%=      5-min Rain = 0
KWA1 080921Z 22010KT 14/05 A3001 RMK A01 T01350051  RH  057%=      5-min Rain = 0
KWA1 080922Z 23010KT 13/05 A3001 RMK A01 T01340051  RH  057%=      5-min Rain = 0
KWA1 080923Z 22010KT 13/05 A3001 RMK A01 T01340051  RH  057%=      5-min Rain = 0
KWA1 080924Z 22010KT 13/05 A3001 RMK A01 T01340051  RH  057%=      5-min Rain = 0
KWA1 080925Z 22010KT 13/05 A3001 RMK A01 T01340051  RH  057%=      5-min Rain = 0
KWA1 080926Z 22011KT 14/05 A3001 RMK A01 T01350052  RH  057%=      5-min Rain = 0
KWA1 080927Z 23011KT 14/05 A3001 RMK A01 T01350051  RH  057%=      5-min Rain = 0
KWA1 080928Z 22012KT 13/05 A30 RMK A01 T01340051  RH  057%=      5-min Rain = 0
KWA1 080929Z 23013KT 13/05 A30 RMK A01 T01340051  RH  057%=      5-min Rain = 0
KWA1 080930Z 22013G18KT 14/05 A30 RMK A01 T01350052  RH  057%=      5-min Rain = 0
KWA1 080931Z 23010KT 14/05 A30 RMK A01 T01360052  RH  057%=      5-min Rain = 0
KWA1 080932Z 22012KT 14/05 A30 RMK A01 T01350051  RH  057%=      5-min Rain = 0
KWA1 080933Z 22012KT 13/05 A30 RMK A01 T01340051  RH  057%=      5-min Rain = 0
KWA1 080934Z 23012KT 14/05 A30 RMK A01 T01350051  RH  057%=      5-min Rain = 0
KWA1 080935Z 23012KT 14/05 A30 RMK A01 T01350052  RH  057%=      5-min Rain = 0
KWA1 080936Z 23012G19KT 14/05 A30 RMK A01 T01350051  RH  057%=      5-min Rain = 0
KWA1 080937Z 23011KT 14/05 A30 RMK A01 T01350051  RH  057%=      5-min Rain = 0
KWA1 080938Z 23013KT 14/05 A30 RMK A01 T01350052  RH  057%=      5-min Rain = 0
KWA1 080939Z 23012KT 14/05 A30 RMK A01 T01350051  RH  057%=      5-min Rain = 0
KWA1 080940Z 23011KT 13/05 A30 RMK A01 T01330051  RH  057%=      5-min Rain = 0
KWA1 080941Z 23010KT 13/05 A30 RMK A01 T01330051  RH  058%=      5-min Rain = 0
KWA1 080942Z 22012KT 13/05 A30 RMK A01 T01320051  RH  058%=      5-min Rain = 0
KWA1 080943Z 23011KT 13/05 A30 RMK A01 T01320051  RH  058%=      5-min Rain = 0
KWA1 080944Z 22012KT 13/05 A30 RMK A01 T01320051  RH  058%=      5-min Rain = 0
KWA1 080945Z 23011KT 13/05 A30 RMK A01 T01340052  RH  058%=      5-min Rain = 0
KWA1 080946Z 22011KT 13/05 A30 RMK A01 T01340052  RH  058%=      5-min Rain = 0
KWA1 080947Z 22009KT 13/05 A30 RMK A01 T01330052  RH  058%=      5-min Rain = 0
KWA1 080948Z 22012KT 13/05 A30 RMK A01 T01320052  RH  058%=      5-min Rain = 0
KWA1 080949Z 23011KT 13/05 A30 RMK A01 T01330052  RH  058%=      5-min Rain = 0
KWA1 080950Z 23010KT 13/05 A30 RMK A01 T01340052  RH  058%=      5-min Rain = 0
KWA1 080951Z 22010KT 13/05 A30 RMK A01 T01340052  RH  058%=      5-min Rain = 0
KWA1 080952Z 22010KT 13/05 A30 RMK A01 T01340052  RH  058%=      5-min Rain = 0
KWA1 080953Z 22010KT 13/05 A30 RMK A01 T01340052  RH  058%=      5-min Rain = 0
KWA1 080954Z 23010KT 13/05 A30 RMK A01 T01330052  RH  058%=      5-min Rain = 0
KWA1 080955Z 23011KT 13/05 A30 RMK A01 T01320052  RH  058%=      5-min Rain = 0
KWA1 080956Z 23011KT 13/05 A30 RMK A01 T01330052  RH  058%=      5-min Rain = 0
KWA1 080957Z 23010KT 13/05 A30 RMK A01 T01330052  RH  058%=      5-min Rain = 0
KWA1 080958Z 23011KT 13/05 A30 RMK A01 T01330052  RH  058%=      5-min Rain = 0
KWA1 080959Z 23011KT 13/05 A30 RMK A01 T01330052  RH  058%=      5-min Rain = 0
KWA1 081000Z 23011KT 13/05 A30 RMK A01 T01330052  RH  058%=      5-min Rain = 0
KWA1 081001Z 23011G16KT 13/05 A30 RMK A01 T01330052  RH  058%=      5-min Rain = 0
KWA1 081002Z 23010KT 13/05 A30 RMK A01 T01320052  RH  058%=      5-min Rain = 0
KWA1 081003Z 23010KT 13/05 A30 RMK A01 T01310052  RH  058%=      5-min Rain = 0
KWA1 081004Z 23010KT 13/05 A30 RMK A01 T01300052  RH  059%=      5-min Rain = 0
KWA1 081005Z 23011KT 13/05 A30 RMK A01 T01300052  RH  059%=      5-min Rain = 0
KWA1 081006Z 23011KT 13/05 A30 RMK A01 T01300052  RH  059%=      5-min Rain = 0
KWA1 081007Z 23011KT 13/05 A30 RMK A01 T01300052  RH  059%=      5-min Rain = 0
KWA1 081008Z 23011KT 13/05 A30 RMK A01 T01300052  RH  059%=      5-min Rain = 0
KWA1 081009Z 23010G15KT 13/05 A30 RMK A01 T01300052  RH  059%=      5-min Rain = 0
KWA1 081010Z 22011KT 13/05 A30 RMK A01 T01300052  RH  059%=      5-min Rain = 0
KWA1 081011Z 22010KT 13/05 A30 RMK A01 T01300052  RH  059%=      5-min Rain = 0
KWA1 081012Z 23011KT 13/05 A30 RMK A01 T01300052  RH  059%=      5-min Rain = 0
KWA1 081013Z 22012KT 13/05 A30 RMK A01 T01300052  RH  059%=      5-min Rain = 0
KWA1 081014Z 22012KT 13/05 A30 RMK A01 T01300053  RH  059%=      5-min Rain = 0
KWA1 081015Z 22012KT 13/05 A30 RMK A01 T01300053  RH  059%=      5-min Rain = 0
KWA1 081016Z 22012KT 13/05 A30 RMK A01 T01300053  RH  059%=      5-min Rain = 0
KWA1 081017Z 22013KT 13/05 A30 RMK A01 T01310053  RH  059%=      5-min Rain = 0
KWA1 081018Z 22013G18KT 13/05 A30 RMK A01 T01310053  RH  059%=      5-min Rain = 0
KWA1 081019Z 22014G19KT 13/05 A30 RMK A01 T01310052  RH  059%=      5-min Rain = 0
KWA1 081020Z 22013KT 13/05 A30 RMK A01 T01300052  RH  059%=      5-min Rain = 0
KWA1 081021Z 22013KT 13/05 A30 RMK A01 T01290052  RH  059%=      5-min Rain = 0
KWA1 081022Z 21013G18KT 13/05 A30 RMK A01 T01290052  RH  060%=      5-min Rain = 0
KWA1 081023Z 21012G17KT 13/05 A30 RMK A01 T01290052  RH  060%=      5-min Rain = 0
KWA1 081024Z 22013G18KT 13/05 A30 RMK A01 T01280052  RH  060%=      5-min Rain = 0
KWA1 081025Z 21013G18KT 13/05 A30 RMK A01 T01280052  RH  060%=      5-min Rain = 0
KWA1 081026Z 21013KT 13/05 A30 RMK A01 T01280052  RH  060%=      5-min Rain = 0
KWA1 081027Z 21013KT 13/05 A30 RMK A01 T01280052  RH  060%=      5-min Rain = 0
KWA1 081028Z 21014KT 13/05 A30 RMK A01 T01280052  RH  060%=      5-min Rain = 0
KWA1 081029Z 21014KT 13/05 A30 RMK A01 T01280052  RH  060%=      5-min Rain = 0
KWA1 081030Z 22013G18KT 13/05 A30 RMK A01 T01280052  RH  060%=      5-min Rain = 0
KWA1 081031Z 22013KT 13/05 A30 RMK A01 T01280052  RH  060%=      5-min Rain = 0
KWA1 081032Z 21013KT 13/05 A30 RMK A01 T01280052  RH  060%=      5-min Rain = 0
KWA1 081033Z 22015G22KT 13/05 A30 RMK A01 T01270052  RH  060%=      5-min Rain = 0
KWA1 081034Z 22016KT 13/05 A30 RMK A01 T01270053  RH  060%=      5-min Rain = 0
KWA1 081035Z 22015KT 13/05 A30 RMK A01 T01270052  RH  060%=      5-min Rain = 0
KWA1 081036Z 21014KT 13/05 A2999 RMK A01 T01270052  RH  060%=      5-min Rain = 0
KWA1 081037Z 21015KT 13/05 A2999 RMK A01 T01270052  RH  060%=      5-min Rain = 0
KWA1 081038Z 21018G23KT 13/05 A2999 RMK A01 T01270053  RH  060%=      5-min Rain = 0
KWA1 081039Z 22015KT 13/05 A2999 RMK A01 T01280052  RH  060%=      5-min Rain = 0
KWA1 081040Z 22014KT 13/05 A2999 RMK A01 T01270052  RH  060%=      5-min Rain = 0
KWA1 081041Z 22013KT 13/05 A2999 RMK A01 T01260052  RH  061%=      5-min Rain = 0
KWA1 081042Z 21016G21KT 13/05 A2999 RMK A01 T01250052  RH  061%=      5-min Rain = 0
KWA1 081043Z 21017KT 13/05 A2999 RMK A01 T01250052  RH  061%=      5-min Rain = 0
KWA1 081044Z 21016G22KT 13/05 A2999 RMK A01 T01250052  RH  061%=      5-min Rain = 0
KWA1 081045Z 21016G21KT 13/05 A2999 RMK A01 T01250052  RH  061%=      5-min Rain = 0
KWA1 081046Z 22016KT 13/05 A2999 RMK A01 T01250052  RH  061%=      5-min Rain = 0
KWA1 081047Z 21016KT 13/05 A2999 RMK A01 T01250052  RH  061%=      5-min Rain = 0
KWA1 081048Z 21016KT 12/05 A2999 RMK A01 T01240052  RH  061%=      5-min Rain = 0
KWA1 081049Z 22016KT 12/05 A2999 RMK A01 T01240052  RH  061%=      5-min Rain = 0
KWA1 081050Z 21015KT 12/05 A2999 RMK A01 T01240052  RH  061%=      5-min Rain = 0
KWA1 081051Z 21016KT 12/05 A2999 RMK A01 T01240052  RH  061%=      5-min Rain = 0
KWA1 081052Z 21015KT 12/05 A2999 RMK A01 T01240052  RH  062%=      5-min Rain = 0
KWA1 081053Z 22017KT 12/05 A2999 RMK A01 T01240052  RH  062%=      5-min Rain = 0
KWA1 081054Z 22015KT 12/05 A2999 RMK A01 T01230052  RH  062%=      5-min Rain = 0
KWA1 081055Z 22015KT 12/05 A2999 RMK A01 T01230052  RH  062%=      5-min Rain = 0
KWA1 081056Z 22015KT 12/05 A2999 RMK A01 T01230052  RH  062%=      5-min Rain = 0
KWA1 081057Z 22014KT 12/05 A2999 RMK A01 T01220052  RH  062%=      5-min Rain = 0
KWA1 081058Z 22015KT 12/05 A2999 RMK A01 T01210052  RH  062%=      5-min Rain = 0
KWA1 081059Z 22014KT 12/05 A2999 RMK A01 T01210052  RH  062%=      5-min Rain = 0
KWA1 081100Z 22016KT 12/05 A2999 RMK A01 T01210052  RH  063%=      5-min Rain = 0
KWA1 081101Z 23015KT 12/05 A2999 RMK A01 T01210052  RH  063%=      5-min Rain = 0
KWA1 081102Z 23015KT 12/05 A2999 RMK A01 T01210052  RH  063%=      5-min Rain = 0
KWA1 081103Z 23014KT 12/05 A30 RMK A01 T01210052  RH  063%=      5-min Rain = 0
KWA1 081104Z 23015KT 12/05 A30 RMK A01 T01200052  RH  063%=      5-min Rain = 0
KWA1 081105Z 23014KT 12/05 A30 RMK A01 T01190051  RH  063%=      5-min Rain = 0
KWA1 081106Z 23014KT 12/05 A30 RMK A01 T01190051  RH  063%=      5-min Rain = 0
KWA1 081107Z 23015KT 12/05 A30 RMK A01 T01190052  RH  064%=      5-min Rain = 0
KWA1 081108Z 23014KT 12/05 A30 RMK A01 T01180052  RH  064%=      5-min Rain = 0
KWA1 081109Z 23013G18KT 12/05 A30 RMK A01 T01180051  RH  064%=      5-min Rain = 0
KWA1 081110Z 23014KT 12/05 A30 RMK A01 T01180051  RH  064%=      5-min Rain = 0
KWA1 081111Z 22013KT 12/05 A2999 RMK A01 T01170051  RH  064%=      5-min Rain = 0
KWA1 081112Z 22012KT 12/05 A2999 RMK A01 T01180052  RH  064%=      5-min Rain = 0
KWA1 081113Z 22015KT 12/05 A2999 RMK A01 T01170051  RH  064%=      5-min Rain = 0
KWA1 081114Z 22014KT 12/05 A2999 RMK A01 T01170051  RH  064%=      5-min Rain = 0
KWA1 081115Z 22014G19KT 12/05 A2999 RMK A01 T01180052  RH  064%=      5-min Rain = 0
KWA1 081116Z 22014G19KT 12/05 A2999 RMK A01 T01180052  RH  064%=      5-min Rain = 0
KWA1 081117Z 22013KT 12/05 A2999 RMK A01 T01180051  RH  064%=      5-min Rain = 0
KWA1 081118Z 22014KT 12/05 A2999 RMK A01 T01170052  RH  064%=      5-min Rain = 0
KWA1 081119Z 22013KT 12/05 A2998 RMK A01 T01170052  RH  064%=      5-min Rain = 0
KWA1 081120Z 22013KT 12/05 A2998 RMK A01 T01180052  RH  064%=      5-min Rain = 0
KWA1 081121Z 22013KT 12/05 A2999 RMK A01 T01170052  RH  064%=      5-min Rain = 0
KWA1 081122Z 23013KT 12/05 A2999 RMK A01 T01170052  RH  064%=      5-min Rain = 0
KWA1 081123Z 23013KT 12/05 A2999 RMK A01 T01180052  RH  064%=      5-min Rain = 0
KWA1 081124Z 22014KT 12/05 A2999 RMK A01 T01180051  RH  064%=      5-min Rain = 0
KWA1 081125Z 23013KT 12/05 A2999 RMK A01 T01180051  RH  064%=      5-min Rain = 0
KWA1 081126Z 22013G19KT 12/05 A2999 RMK A01 T01180052  RH  064%=      5-min Rain = 0
KWA1 081127Z 22012KT 12/05 A2999 RMK A01 T01180052  RH  064%=      5-min Rain = 0
KWA1 081128Z 23012KT 12/05 A2999 RMK A01 T01180052  RH  064%=      5-min Rain = 0
KWA1 081129Z 23013KT 12/05 A2999 RMK A01 T01170052  RH  064%=      5-min Rain = 0
KWA1 081130Z 23013KT 12/05 A2999 RMK A01 T01170052  RH  064%=      5-min Rain = 0
KWA1 081131Z 23015G20KT 12/05 A2999 RMK A01 T01170052  RH  064%=      5-min Rain = 0
KWA1 081132Z 23014KT 12/05 A2999 RMK A01 T01190053  RH  064%=      5-min Rain = 0
KWA1 081133Z 23013KT 12/05 A2999 RMK A01 T01200053  RH  064%=      5-min Rain = 0
KWA1 081134Z 23013KT 12/05 A30 RMK A01 T01200053  RH  064%=      5-min Rain = 0
KWA1 081135Z 23012KT 12/05 A30 RMK A01 T01200053  RH  063%=      5-min Rain = 0
KWA1 081136Z 23013KT 12/05 A30 RMK A01 T01190052  RH  064%=      5-min Rain = 0
KWA1 081137Z 23013KT 12/05 A30 RMK A01 T01180052  RH  064%=      5-min Rain = 0
KWA1 081138Z 23013KT 12/05 A30 RMK A01 T01180052  RH  064%=      5-min Rain = 0
KWA1 081139Z 23011KT 12/05 A30 RMK A01 T01180052  RH  064%=      5-min Rain = 0
KWA1 081140Z 23012KT 12/05 A30 RMK A01 T01170052  RH  064%=      5-min Rain = 0
KWA1 081141Z 23012KT 12/05 A30 RMK A01 T01170052  RH  064%=      5-min Rain = 0
KWA1 081142Z 23012KT 12/05 A30 RMK A01 T01170052  RH  064%=      5-min Rain = 0
KWA1 081143Z 24011KT 12/05 A30 RMK A01 T01160052  RH  065%=      5-min Rain = 0
KWA1 081144Z 23012KT 12/05 A30 RMK A01 T01160052  RH  065%=      5-min Rain = 0
KWA1 081145Z 23011KT 12/05 A30 RMK A01 T01160052  RH  065%=      5-min Rain = 0
KWA1 081146Z 23012KT 12/05 A30 RMK A01 T01150051  RH  065%=      5-min Rain = 0
KWA1 081147Z 24011KT 12/05 A30 RMK A01 T01150052  RH  065%=      5-min Rain = 0
KWA1 081148Z 24011KT 12/05 A3001 RMK A01 T01150052  RH  065%=      5-min Rain = 0
KWA1 081149Z 24011KT 12/05 A3001 RMK A01 T01150051  RH  065%=      5-min Rain = 0
KWA1 081150Z 24011KT 12/05 A3001 RMK A01 T01160052  RH  065%=      5-min Rain = 0
KWA1 081151Z 24012KT 12/05 A3001 RMK A01 T01150051  RH  065%=      5-min Rain = 0
KWA1 081152Z 24011KT 12/05 A3001 RMK A01 T01150051  RH  065%=      5-min Rain = 0
KWA1 081153Z 24010KT 12/05 A3001 RMK A01 T01150051  RH  065%=      5-min Rain = 0
KWA1 081154Z 25009KT 12/05 A3001 RMK A01 T01150051  RH  065%=      5-min Rain = 0
KWA1 081155Z 25009KT 11/05 A3001 RMK A01 T01130051  RH  065%=      5-min Rain = 0
KWA1 081156Z 24010KT 11/05 A3001 RMK A01 T01130051  RH  066%=      5-min Rain = 0
KWA1 081157Z 24009KT 11/05 A3001 RMK A01 T01120050  RH  066%=      5-min Rain = 0
KWA1 081158Z 24009KT 11/05 A3001 RMK A01 T01110050  RH  066%=      5-min Rain = 0
KWA1 081159Z 24009KT 11/05 A3001 RMK A01 T01100050  RH  066%=      5-min Rain = 0
KWA1 081200Z 24008KT 11/05 A3001 RMK A01 T01100050  RH  066%=      5-min Rain = 0
KWA1 081201Z 24009KT 11/05 A3001 RMK A01 T01100050  RH  067%=      5-min Rain = 0
KWA1 081202Z 24009KT 11/05 A3001 RMK A01 T01090050  RH  067%=      5-min Rain = 0
KWA1 081203Z 24009KT 11/05 A3001 RMK A01 T01090050  RH  067%=      5-min Rain = 0
KWA1 081204Z 24009KT 11/05 A3001 RMK A01 T01090050  RH  067%=      5-min Rain = 0
KWA1 081205Z 24009KT 11/05 A3001 RMK A01 T01080050  RH  067%=      5-min Rain = 0
KWA1 081206Z 24009KT 11/05 A3001 RMK A01 T01080050  RH  067%=      5-min Rain = 0
KWA1 081207Z 24007KT 11/05 A3001 RMK A01 T01090050  RH  067%=      5-min Rain = 0
KWA1 081208Z 23007KT 11/05 A3001 RMK A01 T01090050  RH  067%=      5-min Rain = 0
KWA1 081209Z 24007KT 11/05 A3001 RMK A01 T01080049  RH  067%=      5-min Rain = 0
KWA1 081210Z 24007KT 11/05 A3001 RMK A01 T01070049  RH  067%=      5-min Rain = 0
KWA1 081211Z 24007KT 11/05 A3001 RMK A01 T01060049  RH  068%=      5-min Rain = 0
KWA1 081212Z 24008KT 11/05 A3001 RMK A01 T01060049  RH  068%=      5-min Rain = 0
KWA1 081213Z 24007KT 11/05 A3001 RMK A01 T01060049  RH  068%=      5-min Rain = 0
KWA1 081214Z 24008KT 11/05 A3001 RMK A01 T01060049  RH  068%=      5-min Rain = 0
KWA1 081215Z 23008KT 11/05 A3001 RMK A01 T01050049  RH  068%=      5-min Rain = 0
KWA1 081216Z 24008KT 11/05 A3001 RMK A01 T01050049  RH  068%=      5-min Rain = 0
KWA1 081217Z 24008KT 11/05 A3001 RMK A01 T01050048  RH  068%=      5-min Rain = 0
KWA1 081218Z 23008KT 11/05 A3001 RMK A01 T01050049  RH  068%=      5-min Rain = 0
KWA1 081219Z 23008KT 10/05 A3001 RMK A01 T01040048  RH  068%=      5-min Rain = 0
KWA1 081220Z 23008KT 11/05 A3001 RMK A01 T01050048  RH  068%=      5-min Rain = 0
KWA1 081221Z 23008KT 11/05 A3001 RMK A01 T01050049  RH  068%=      5-min Rain = 0
KWA1 081222Z 23008KT 11/05 A3001 RMK A01 T01050049  RH  068%=      5-min Rain = 0
KWA1 081223Z 23009KT 11/05 A3001 RMK A01 T01050049  RH  068%=      5-min Rain = 0
KWA1 081224Z 23009KT 11/05 A3001 RMK A01 T01060049  RH  068%=      5-min Rain = 0
KWA1 081225Z 23008KT 11/05 A3001 RMK A01 T01070050  RH  068%=      5-min Rain = 0
KWA1 081226Z 23008KT 11/05 A3001 RMK A01 T01070049  RH  068%=      5-min Rain = 0
KWA1 081227Z 22008KT 11/05 A3001 RMK A01 T01070050  RH  068%=      5-min Rain = 0
KWA1 081228Z 22009KT 11/05 A3001 RMK A01 T01070050  RH  068%=      5-min Rain = 0
KWA1 081229Z 23009KT 11/05 A3001 RMK A01 T01070050  RH  068%=      5-min Rain = 0
KWA1 081230Z 22009KT 11/05 A3001 RMK A01 T01080050  RH  067%=      5-min Rain = 0
KWA1 081231Z 22008KT 11/05 A3001 RMK A01 T01090050  RH  067%=      5-min Rain = 0
KWA1 081232Z 22009KT 11/05 A3001 RMK A01 T01090049  RH  067%=      5-min Rain = 0
KWA1 081233Z 22009KT 11/05 A3001 RMK A01 T01090050  RH  067%=      5-min Rain = 0
KWA1 081234Z 22009KT 11/05 A3001 RMK A01 T01100050  RH  067%=      5-min Rain = 0
KWA1 081235Z 22010KT 11/05 A3001 RMK A01 T01100050  RH  067%=      5-min Rain = 0
KWA1 081236Z 23008KT 11/05 A3001 RMK A01 T01100050  RH  066%=      5-min Rain = 0
KWA1 081237Z 23008KT 11/05 A3001 RMK A01 T01110050  RH  066%=      5-min Rain = 0
KWA1 081238Z 23008KT 11/05 A3001 RMK A01 T01110050  RH  066%=      5-min Rain = 0
KWA1 081239Z 23008KT 11/05 A3001 RMK A01 T01100050  RH  066%=      5-min Rain = 0
KWA1 081240Z 22008KT 11/05 A3001 RMK A01 T01100050  RH  066%=      5-min Rain = 0
KWA1 081241Z 23008KT 11/05 A3001 RMK A01 T01100050  RH  067%=      5-min Rain = 0
KWA1 081242Z 23008KT 11/05 A3001 RMK A01 T01100050  RH  067%=      5-min Rain = 0
KWA1 081243Z 23008KT 11/05 A3001 RMK A01 T01100050  RH  066%=      5-min Rain = 0
KWA1 081244Z 22008KT 11/05 A3001 RMK A01 T01110050  RH  066%=      5-min Rain = 0
KWA1 081245Z 22008KT 11/05 A3001 RMK A01 T01120051  RH  066%=      5-min Rain = 0
KWA1 081246Z 22009KT 11/05 A3001 RMK A01 T01120050  RH  066%=      5-min Rain = 0
KWA1 081247Z 23009KT 11/05 A3001 RMK A01 T01120051  RH  066%=      5-min Rain = 0
KWA1 081248Z 23008KT 11/05 A3001 RMK A01 T01130051  RH  066%=      5-min Rain = 0
KWA1 081249Z 23009KT 11/05 A3001 RMK A01 T01130051  RH  065%=      5-min Rain = 0
KWA1 081250Z 23008KT 11/05 A3001 RMK A01 T01130051  RH  065%=      5-min Rain = 0
KWA1 081251Z 23009KT 11/05 A30 RMK A01 T01130050  RH  065%=      5-min Rain = 0
KWA1 081252Z 23009KT 11/05 A30 RMK A01 T01130051  RH  065%=      5-min Rain = 0
KWA1 081253Z 23007KT 11/05 A30 RMK A01 T01130051  RH  065%=      5-min Rain = 0
KWA1 081254Z 23007KT 11/05 A30 RMK A01 T01130050  RH  065%=      5-min Rain = 0
KWA1 081255Z 23007KT 11/05 A30 RMK A01 T01120050  RH  066%=      5-min Rain = 0
KWA1 081256Z 23008KT 11/05 A30 RMK A01 T01120050  RH  066%=      5-min Rain = 0
KWA1 081257Z 23007KT 11/05 A30 RMK A01 T01110050  RH  066%=      5-min Rain = 0
KWA1 081258Z 23007KT 11/05 A30 RMK A01 T01120050  RH  066%=      5-min Rain = 0
KWA1 081259Z 23008KT 11/05 A30 RMK A01 T01110051  RH  066%=      5-min Rain = 0
KWA1 081300Z 23009KT 11/05 A30 RMK A01 T01110050  RH  066%=      5-min Rain = 0
KWA1 081301Z 22009KT 11/05 A30 RMK A01 T01130051  RH  066%=      5-min Rain = 0
KWA1 081302Z 23008KT 11/05 A30 RMK A01 T01140051  RH  065%=      5-min Rain = 0
KWA1 081303Z 23008KT 12/05 A30 RMK A01 T01150051  RH  065%=      5-min Rain = 0
KWA1 081304Z 23008KT 12/05 A3001 RMK A01 T01150051  RH  065%=      5-min Rain = 0
KWA1 081305Z 22007KT 11/05 A30 RMK A01 T01140051  RH  065%=      5-min Rain = 0
KWA1 081306Z 23007KT 11/05 A30 RMK A01 T01140051  RH  065%=      5-min Rain = 0
KWA1 081307Z 23008KT 11/05 A30 RMK A01 T01140051  RH  065%=      5-min Rain = 0
KWA1 081308Z 22007KT 11/05 A30 RMK A01 T01140051  RH  065%=      5-min Rain = 0
KWA1 081309Z 23007KT 12/05 A30 RMK A01 T01150051  RH  065%=      5-min Rain = 0
KWA1 081310Z 23009KT 12/05 A30 RMK A01 T01150051  RH  065%=      5-min Rain = 0
KWA1 081311Z 23009KT 12/05 A30 RMK A01 T01150051  RH  065%=      5-min Rain = 0
KWA1 081312Z 23007KT 12/05 A30 RMK A01 T01160052  RH  064%=      5-min Rain = 0
KWA1 081313Z 23010KT 12/05 A30 RMK A01 T01170052  RH  064%=      5-min Rain = 0
KWA1 081314Z 23009KT 12/05 A30 RMK A01 T01170052  RH  064%=      5-min Rain = 0
KWA1 081315Z 23008KT 12/05 A30 RMK A01 T01170052  RH  064%=      5-min Rain = 0
KWA1 081316Z 23008KT 12/05 A30 RMK A01 T01160051  RH  064%=      5-min Rain = 0
KWA1 081317Z 23007KT 12/05 A30 RMK A01 T01160051  RH  065%=      5-min Rain = 0
KWA1 081318Z 22007G12KT 12/05 A30 RMK A01 T01150051  RH  065%=      5-min Rain = 0
KWA1 081319Z 23010G15KT 12/05 A30 RMK A01 T01150051  RH  065%=      5-min Rain = 0
KWA1 081320Z 23009KT 12/05 A30 RMK A01 T01160052  RH  065%=      5-min Rain = 0
KWA1 081321Z 22009KT 12/05 A30 RMK A01 T01170052  RH  064%=      5-min Rain = 0
KWA1 081322Z 22010KT 12/05 A30 RMK A01 T01180052  RH  064%=      5-min Rain = 0
KWA1 081323Z 22010KT 12/05 A30 RMK A01 T01170052  RH  064%=      5-min Rain = 0
KWA1 081324Z 23011KT 12/05 A30 RMK A01 T01170052  RH  064%=      5-min Rain = 0
KWA1 081325Z 23010KT 12/05 A30 RMK A01 T01170052  RH  064%=      5-min Rain = 0
KWA1 081326Z 22010KT 12/05 A30 RMK A01 T01170052  RH  064%=      5-min Rain = 0
KWA1 081327Z 22011KT 12/05 A30 RMK A01 T01170052  RH  064%=      5-min Rain = 0
KWA1 081328Z 22010KT 12/05 A30 RMK A01 T01170052  RH  064%=      5-min Rain = 0
KWA1 081329Z 22010KT 12/05 A30 RMK A01 T01180052  RH  064%=      5-min Rain = 0
KWA1 081330Z 22011KT 12/05 A30 RMK A01 T01180052  RH  064%=      5-min Rain = 0
KWA1 081331Z 22009KT 12/05 A30 RMK A01 T01180053  RH  064%=      5-min Rain = 0
KWA1 081332Z 22010KT 12/05 A30 RMK A01 T01170052  RH  064%=      5-min Rain = 0
KWA1 081333Z 22011G16KT 12/05 A30 RMK A01 T01170053  RH  065%=      5-min Rain = 0
KWA1 081334Z 22011KT 12/05 A30 RMK A01 T01170052  RH  064%=      5-min Rain = 0
KWA1 081335Z 23011KT 12/05 A30 RMK A01 T01170052  RH  064%=      5-min Rain = 0
KWA1 081336Z 22012KT 12/05 A30 RMK A01 T01170053  RH  064%=      5-min Rain = 0
KWA1 081337Z 22010KT 12/05 A3001 RMK A01 T01180053  RH  064%=      5-min Rain = 0
KWA1 081338Z 23009KT 12/05 A3001 RMK A01 T01180053  RH  064%=      5-min Rain = 0
KWA1 081339Z 22010KT 12/05 A30 RMK A01 T01180053  RH  064%=      5-min Rain = 0
KWA1 081340Z 23009KT 12/05 A30 RMK A01 T01180053  RH  064%=      5-min Rain = 0
KWA1 081341Z 23010KT 12/05 A30 RMK A01 T01180053  RH  064%=      5-min Rain = 0
KWA1 081342Z 22011KT 12/05 A30 RMK A01 T01180053  RH  064%=      5-min Rain = 0
KWA1 081343Z 22009KT 12/05 A30 RMK A01 T01180053  RH  064%=      5-min Rain = 0
KWA1 081344Z 22010KT 12/05 A30 RMK A01 T01180053  RH  064%=      5-min Rain = 0
KWA1 081345Z 22010KT 12/05 A30 RMK A01 T01190053  RH  064%=      5-min Rain = 0
KWA1 081346Z 21010KT 12/05 A30 RMK A01 T01180053  RH  064%=      5-min Rain = 0
KWA1 081347Z 22011KT 12/05 A30 RMK A01 T01180053  RH  064%=      5-min Rain = 0
KWA1 081348Z 21011KT 12/05 A30 RMK A01 T01190053  RH  064%=      5-min Rain = 0
KWA1 081349Z 22011KT 12/05 A30 RMK A01 T01190053  RH  064%=      5-min Rain = 0
KWA1 081350Z 22010KT 12/05 A30 RMK A01 T01200054  RH  064%=      5-min Rain = 0
KWA1 081351Z 21010KT 12/05 A30 RMK A01 T01200053  RH  064%=      5-min Rain = 0
KWA1 081352Z 22011KT 12/05 A30 RMK A01 T01200054  RH  064%=      5-min Rain = 0
KWA1 081353Z 22012KT 12/05 A30 RMK A01 T01190053  RH  064%=      5-min Rain = 0
KWA1 081354Z 22012KT 12/05 A30 RMK A01 T01200054  RH  064%=      5-min Rain = 0
KWA1 081355Z 22011KT 12/05 A30 RMK A01 T01210054  RH  064%=      5-min Rain = 0
KWA1 081356Z 22011KT 12/05 A30 RMK A01 T01210054  RH  064%=      5-min Rain = 0
KWA1 081357Z 22011KT 12/05 A30 RMK A01 T01210054  RH  064%=      5-min Rain = 0
KWA1 081358Z 22010KT 12/05 A30 RMK A01 T01210054  RH  064%=      5-min Rain = 0
KWA1 081359Z 22011KT 12/06 A30 RMK A01 T01210055  RH  064%=      5-min Rain = 0
KWA1 081400Z 22010KT 12/06 A30 RMK A01 T01210055  RH  064%=      5-min Rain = 0
KWA1 081401Z 22011KT 12/06 A30 RMK A01 T01210055  RH  064%=      5-min Rain = 0
KWA1 081402Z 23010KT 12/06 A30 RMK A01 T01210055  RH  064%=      5-min Rain = 0
KWA1 081403Z 23010KT 12/06 A30 RMK A01 T01220055  RH  064%=      5-min Rain = 0
KWA1 081404Z 22010KT 12/06 A30 RMK A01 T01220055  RH  064%=      5-min Rain = 0
KWA1 081405Z 23010KT 12/06 A30 RMK A01 T01230056  RH  064%=      5-min Rain = 0
KWA1 081406Z 23009KT 12/06 A30 RMK A01 T01230056  RH  064%=      5-min Rain = 0
KWA1 081407Z 23010KT 12/06 A30 RMK A01 T01230056  RH  064%=      5-min Rain = 0
KWA1 081408Z 23009KT 12/06 A30 RMK A01 T01240057  RH  063%=      5-min Rain = 0
KWA1 081409Z 22009KT 13/06 A30 RMK A01 T01250057  RH  063%=      5-min Rain = 0
KWA1 081410Z 22010KT 13/06 A30 RMK A01 T01260057  RH  063%=      5-min Rain = 0
KWA1 081411Z 23010KT 13/06 A30 RMK A01 T01260057  RH  063%=      5-min Rain = 0
KWA1 081412Z 23009KT 13/06 A30 RMK A01 T01260057  RH  063%=      5-min Rain = 0
KWA1 081413Z 23010KT 13/06 A30 RMK A01 T01260058  RH  063%=      5-min Rain = 0
KWA1 081414Z 23010KT 13/06 A3001 RMK A01 T01270058  RH  063%=      5-min Rain = 0
KWA1 081415Z 23009KT 13/06 A3001 RMK A01 T01280059  RH  063%=      5-min Rain = 0
KWA1 081416Z 23009KT 13/06 A3001 RMK A01 T01280059  RH  063%=      5-min Rain = 0
KWA1 081417Z 23010KT 13/06 A3001 RMK A01 T01290059  RH  063%=      5-min Rain = 0
KWA1 081418Z 23009KT 13/06 A3001 RMK A01 T01290060  RH  063%=      5-min Rain = 0
KWA1 081419Z 22008KT 13/06 A3001 RMK A01 T01300060  RH  062%=      5-min Rain = 0
KWA1 081420Z 23009KT 13/06 A3001 RMK A01 T01310061  RH  062%=      5-min Rain = 0
KWA1 081421Z 23008KT 13/06 A3001 RMK A01 T01310061  RH  062%=      5-min Rain = 0
KWA1 081422Z 23011KT 13/06 A3001 RMK A01 T01320061  RH  062%=      5-min Rain = 0
KWA1 081423Z 22012KT 13/06 A3001 RMK A01 T01330061  RH  062%=      5-min Rain = 0
KWA1 081424Z 23010KT 13/06 A3001 RMK A01 T01340061  RH  062%=      5-min Rain = 0
KWA1 081425Z 23011KT 13/06 A3001 RMK A01 T01340062  RH  061%=      5-min Rain = 0
KWA1 081426Z 22010KT 14/06 A3001 RMK A01 T01350062  RH  061%=      5-min Rain = 0
KWA1 081427Z 23011KT 14/06 A3001 RMK A01 T01350062  RH  061%=      5-min Rain = 0
KWA1 081428Z 23011KT 14/06 A3001 RMK A01 T01360063  RH  061%=      5-min Rain = 0
KWA1 081429Z 22009KT 14/06 A3001 RMK A01 T01360062  RH  061%=      5-min Rain = 0
KWA1 081430Z 22011KT 14/06 A3001 RMK A01 T01370063  RH  061%=      5-min Rain = 0
KWA1 081431Z 23013KT 14/06 A3001 RMK A01 T01380063  RH  061%=      5-min Rain = 0
KWA1 081432Z 23013KT 14/06 A3001 RMK A01 T01390063  RH  060%=      5-min Rain = 0
KWA1 081433Z 22012KT 14/06 A3001 RMK A01 T01390063  RH  060%=      5-min Rain = 0
KWA1 081434Z 23010G15KT 14/06 A3001 RMK A01 T01390064  RH  061%=      5-min Rain = 0
KWA1 081435Z 22013KT 14/07 A3001 RMK A01 T01400065  RH  060%=      5-min Rain = 0
KWA1 081436Z 22014KT 14/06 A3001 RMK A01 T01400064  RH  060%=      5-min Rain = 0
KWA1 081437Z 22013G18KT 14/06 A3001 RMK A01 T01400064  RH  060%=      5-min Rain = 0
KWA1 081438Z 23014G20KT 14/06 A30 RMK A01 T01400064  RH  060%=      5-min Rain = 0
KWA1 081439Z 23015KT 14/07 A30 RMK A01 T01410065  RH  060%=      5-min Rain = 0
KWA1 081440Z 23015KT 14/07 A30 RMK A01 T01410065  RH  060%=      5-min Rain = 0
KWA1 081441Z 22016KT 14/07 A30 RMK A01 T01420065  RH  060%=      5-min Rain = 0
KWA1 081442Z 22016KT 14/07 A30 RMK A01 T01420065  RH  060%=      5-min Rain = 0
KWA1 081443Z 23014KT 14/07 A30 RMK A01 T01420066  RH  060%=      5-min Rain = 0
KWA1 081444Z 22016KT 14/07 A30 RMK A01 T01430066  RH  060%=      5-min Rain = 0
KWA1 081445Z 22014KT 14/07 A30 RMK A01 T01430067  RH  060%=      5-min Rain = 0
KWA1 081446Z 22015G20KT 14/07 A30 RMK A01 T01440067  RH  060%=      5-min Rain = 0
KWA1 081447Z 22015KT 14/07 A30 RMK A01 T01440067  RH  060%=      5-min Rain = 0
KWA1 081448Z 23016KT 14/07 A30 RMK A01 T01440067  RH  060%=      5-min Rain = 0
KWA1 081449Z 23016KT 14/07 A30 RMK A01 T01440067  RH  060%=      5-min Rain = 0
KWA1 081450Z 22014KT 15/07 A30 RMK A01 T01450067  RH  060%=      5-min Rain = 0
KWA1 081451Z 22014KT 15/07 A30 RMK A01 T01450068  RH  060%=      5-min Rain = 0
KWA1 081452Z 23012KT 15/07 A30 RMK A01 T01460068  RH  060%=      5-min Rain = 0
KWA1 081453Z 23012KT 15/07 A30 RMK A01 T01460068  RH  060%=      5-min Rain = 0
KWA1 081454Z 23013KT 15/07 A30 RMK A01 T01460069  RH  060%=      5-min Rain = 0
KWA1 081455Z 22014KT 15/07 A30 RMK A01 T01460069  RH  060%=      5-min Rain = 0
KWA1 081456Z 23014KT 15/07 A30 RMK A01 T01470069  RH  060%=      5-min Rain = 0
KWA1 081457Z 23016KT 15/07 A30 RMK A01 T01460068  RH  059%=      5-min Rain = 0
KWA1 081458Z 23013KT 15/07 A30 RMK A01 T01460069  RH  060%=      5-min Rain = 0
KWA1 081459Z 23014KT 15/07 A30 RMK A01 T01470069  RH  060%=      5-min Rain = 0
KWA1 081500Z 23014KT 15/07 A30 RMK A01 T01470070  RH  060%=      5-min Rain = 0
KWA1 081501Z 22014G19KT 15/07 A30 RMK A01 T01480070  RH  060%=      5-min Rain = 0
KWA1 081502Z 22017KT 15/07 A30 RMK A01 T01480070  RH  059%=      5-min Rain = 0
KWA1 081503Z 23015G20KT 15/07 A30 RMK A01 T01480070  RH  060%=      5-min Rain = 0
KWA1 081504Z 23014KT 15/07 A30 RMK A01 T01490070  RH  059%=      5-min Rain = 0
KWA1 081505Z 23016KT 15/07 A30 RMK A01 T01500072  RH  059%=      5-min Rain = 0
KWA1 081506Z 23016KT 15/07 A30 RMK A01 T01500071  RH  059%=      5-min Rain = 0
KWA1 081507Z 23017KT 15/07 A30 RMK A01 T01500071  RH  059%=      5-min Rain = 0
KWA1 081508Z 23014G20KT 15/07 A30 RMK A01 T01500072  RH  059%=      5-min Rain = 0
KWA1 081509Z 23015KT 15/07 A30 RMK A01 T01510072  RH  059%=      5-min Rain = 0
KWA1 081510Z 23017KT 15/07 A30 RMK A01 T01510072  RH  059%=      5-min Rain = 0
KWA1 081511Z 23016KT 15/07 A30 RMK A01 T01510072  RH  059%=      5-min Rain = 0
KWA1 081512Z 23016KT 15/07 A30 RMK A01 T01510072  RH  059%=      5-min Rain = 0
KWA1 081513Z 23018KT 15/07 A30 RMK A01 T01510072  RH  059%=      5-min Rain = 0
KWA1 081514Z 23017G22KT 15/07 A30 RMK A01 T01510073  RH  059%=      5-min Rain = 0
KWA1 081515Z 23015KT 15/07 A30 RMK A01 T01520073  RH  060%=      5-min Rain = 0
KWA1 081516Z 23014G19KT 15/07 A30 RMK A01 T01510073  RH  060%=      5-min Rain = 0
KWA1 081517Z 23016KT 15/07 A30 RMK A01 T01520074  RH  059%=      5-min Rain = 0
KWA1 081518Z 23018KT 15/07 A30 RMK A01 T01520074  RH  059%=      5-min Rain = 0
KWA1 081519Z 23014KT 15/07 A30 RMK A01 T01520074  RH  059%=      5-min Rain = 0
KWA1 081520Z 23016KT 15/07 A30 RMK A01 T01520074  RH  059%=      5-min Rain = 0
KWA1 081521Z 23019KT 15/07 A30 RMK A01 T01530074  RH  059%=      5-min Rain = 0
KWA1 081522Z 23016KT 15/07 A30 RMK A01 T01530074  RH  060%=      5-min Rain = 0
KWA1 081523Z 23015KT 15/08 A30 RMK A01 T01530075  RH  060%=      5-min Rain = 0
KWA1 081524Z 23012KT 15/08 A30 RMK A01 T01530075  RH  060%=      5-min Rain = 0
KWA1 081525Z 23013KT 15/08 A30 RMK A01 T01540076  RH  060%=      5-min Rain = 0
KWA1 081526Z 23015KT 16/08 A30 RMK A01 T01550076  RH  059%=      5-min Rain = 0
KWA1 081527Z 23015KT 16/08 A30 RMK A01 T01560076  RH  059%=      5-min Rain = 0
KWA1 081528Z 23016KT 16/08 A30 RMK A01 T01570077  RH  059%=      5-min Rain = 0
KWA1 081529Z 23014KT 16/08 A30 RMK A01 T01570077  RH  059%=      5-min Rain = 0
KWA1 081530Z 22013KT 16/08 A30 RMK A01 T01570077  RH  059%=      5-min Rain = 0
KWA1 081531Z 22014KT 16/08 A30 RMK A01 T01590078  RH  059%=      5-min Rain = 0
KWA1 081532Z 23011KT 16/08 A30 RMK A01 T01590078  RH  058%=      5-min Rain = 0
KWA1 081533Z 23013KT 16/08 A30 RMK A01 T01600079  RH  058%=      5-min Rain = 0
KWA1 081534Z 23014KT 16/08 A30 RMK A01 T01600078  RH  058%=      5-min Rain = 0
KWA1 081535Z 23013KT 16/08 A30 RMK A01 T01600078  RH  058%=      5-min Rain = 0
KWA1 081536Z 23016KT 16/08 A30 RMK A01 T01590077  RH  058%=      5-min Rain = 0
KWA1 081537Z 23015KT 16/08 A30 RMK A01 T01600077  RH  058%=      5-min Rain = 0
KWA1 081538Z 23015G21KT 16/08 A30 RMK A01 T01600078  RH  058%=      5-min Rain = 0
KWA1 081539Z 23019KT 16/08 A30 RMK A01 T01610078  RH  058%=      5-min Rain = 0
KWA1 081540Z 23016G21KT 16/08 A30 RMK A01 T01610078  RH  058%=      5-min Rain = 0
KWA1 081541Z 23015KT 16/08 A30 RMK A01 T01610079  RH  058%=      5-min Rain = 0
KWA1 081542Z 23018KT 16/08 A30 RMK A01 T01620078  RH  058%=      5-min Rain = 0
KWA1 081543Z 23018KT 16/08 A30 RMK A01 T01620078  RH  057%=      5-min Rain = 0
KWA1 081544Z 23017KT 16/08 A30 RMK A01 T01620078  RH  058%=      5-min Rain = 0
KWA1 081545Z 22015KT 16/08 A30 RMK A01 T01620078  RH  058%=      5-min Rain = 0
KWA1 081546Z 23016KT 16/08 A30 RMK A01 T01630079  RH  057%=      5-min Rain = 0
KWA1 081547Z 23014KT 16/08 A30 RMK A01 T01640079  RH  057%=      5-min Rain = 0
KWA1 081548Z 23016KT 17/08 A30 RMK A01 T01650080  RH  057%=      5-min Rain = 0
KWA1 081549Z 23015KT 17/08 A30 RMK A01 T01660079  RH  057%=      5-min Rain = 0
KWA1 081550Z 23017KT 17/08 A30 RMK A01 T01660079  RH  057%=      5-min Rain = 0
KWA1 081551Z 23017G22KT 17/08 A30 RMK A01 T01660079  RH  057%=      5-min Rain = 0
KWA1 081552Z 22017KT 17/08 A30 RMK A01 T01650078  RH  056%=      5-min Rain = 0
KWA1 081553Z 23015KT 17/08 A30 RMK A01 T01650079  RH  057%=      5-min Rain = 0
KWA1 081554Z 23015KT 17/08 A30 RMK A01 T01660080  RH  057%=      5-min Rain = 0
KWA1 081555Z 23017KT 17/08 A30 RMK A01 T01660079  RH  056%=      5-min Rain = 0
KWA1 081556Z 22015KT 17/08 A30 RMK A01 T01660079  RH  056%=      5-min Rain = 0
KWA1 081557Z 23018KT 17/08 A30 RMK A01 T01670079  RH  056%=      5-min Rain = 0
KWA1 081558Z 22018KT 17/08 A30 RMK A01 T01670079  RH  056%=      5-min Rain = 0
KWA1 081559Z 23015KT 17/08 A30 RMK A01 T01670078  RH  056%=      5-min Rain = 0
KWA1 081600Z 23014KT 17/08 A30 RMK A01 T01680079  RH  056%=      5-min Rain = 0
KWA1 081601Z 22016KT 17/08 A30 RMK A01 T01690080  RH  056%=      5-min Rain = 0
KWA1 081602Z 22014KT 17/08 A30 RMK A01 T01700080  RH  055%=      5-min Rain = 0
KWA1 081603Z 22013KT 17/08 A30 RMK A01 T01700081  RH  055%=      5-min Rain = 0
KWA1 081604Z 23015G20KT 17/08 A30 RMK A01 T01710080  RH  055%=      5-min Rain = 0
KWA1 081605Z 22018KT 17/08 A30 RMK A01 T01710080  RH  055%=      5-min Rain = 0
KWA1 081606Z 23016KT 17/08 A30 RMK A01 T01710079  RH  055%=      5-min Rain = 0
KWA1 081607Z 23017KT 17/08 A30 RMK A01 T01710079  RH  055%=      5-min Rain = 0
KWA1 081608Z 22016KT 17/08 A30 RMK A01 T01710080  RH  055%=      5-min Rain = 0
KWA1 081609Z 22016KT 17/08 A30 RMK A01 T01720080  RH  055%=      5-min Rain = 0
KWA1 081610Z 22017KT 17/08 A30 RMK A01 T01730080  RH  054%=      5-min Rain = 0
KWA1 081611Z 23013KT 17/08 A30 RMK A01 T01740080  RH  054%=      5-min Rain = 0
KWA1 081612Z 22013KT 18/08 A30 RMK A01 T01750081  RH  054%=      5-min Rain = 0
KWA1 081613Z 22014KT 18/08 A30 RMK A01 T01760081  RH  054%=      5-min Rain = 0
KWA1 081614Z 23013G18KT 18/08 A30 RMK A01 T01770082  RH  054%=      5-min Rain = 0
KWA1 081615Z 22014KT 18/08 A30 RMK A01 T01780081  RH  053%=      5-min Rain = 0
KWA1 081616Z 23015KT 18/08 A30 RMK A01 T01780081  RH  053%=      5-min Rain = 0
KWA1 081617Z 23014KT 18/08 A30 RMK A01 T01780081  RH  053%=      5-min Rain = 0
KWA1 081618Z 23015KT 18/08 A30 RMK A01 T01790082  RH  053%=      5-min Rain = 0
KWA1 081619Z 23014KT 18/08 A30 RMK A01 T01790081  RH  052%=      5-min Rain = 0
KWA1 081620Z 23017KT 18/08 A30 RMK A01 T01800082  RH  052%=      5-min Rain = 0
KWA1 081621Z 23016KT 18/08 A30 RMK A01 T01810082  RH  052%=      5-min Rain = 0
KWA1 081622Z 23016KT 18/08 A30 RMK A01 T01800082  RH  052%=      5-min Rain = 0
KWA1 081623Z 22016KT 18/08 A30 RMK A01 T01810081  RH  052%=      5-min Rain = 0
KWA1 081624Z 23015KT 18/08 A30 RMK A01 T01810082  RH  052%=      5-min Rain = 0
KWA1 081625Z 22015KT 18/08 A30 RMK A01 T01810082  RH  052%=      5-min Rain = 0
KWA1 081626Z 22015KT 18/08 A30 RMK A01 T01820082  RH  052%=      5-min Rain = 0
KWA1 081627Z 23016KT 18/08 A30 RMK A01 T01820082  RH  052%=      5-min Rain = 0
KWA1 081628Z 22016KT 18/08 A30 RMK A01 T01830082  RH  052%=      5-min Rain = 0
KWA1 081629Z 22014KT 18/08 A30 RMK A01 T01840083  RH  052%=      5-min Rain = 0
KWA1 081630Z 23012KT 18/08 A30 RMK A01 T01840083  RH  052%=      5-min Rain = 0
KWA1 081631Z 23015KT 19/08 A2999 RMK A01 T01860084  RH  051%=      5-min Rain = 0
KWA1 081632Z 22015KT 19/08 A2999 RMK A01 T01860083  RH  051%=      5-min Rain = 0
KWA1 081633Z 23016KT 19/08 A2999 RMK A01 T01870083  RH  051%=      5-min Rain = 0
KWA1 081634Z 23014KT 19/08 A2999 RMK A01 T01860083  RH  051%=      5-min Rain = 0
KWA1 081635Z 23015KT 19/08 A30 RMK A01 T01870083  RH  051%=      5-min Rain = 0
KWA1 081636Z 22015KT 19/08 A2999 RMK A01 T01880083  RH  050%=      5-min Rain = 0
KWA1 081637Z 23011KT 19/08 A2999 RMK A01 T01880084  RH  051%=      5-min Rain = 0
KWA1 081638Z 23015KT 19/09 A2999 RMK A01 T01920086  RH  050%=      5-min Rain = 0
KWA1 081639Z 23017KT 19/08 A2999 RMK A01 T01940084  RH  049%=      5-min Rain = 0
KWA1 081640Z 23016KT 19/08 A2999 RMK A01 T01940084  RH  049%=      5-min Rain = 0
KWA1 081641Z 23015KT 19/08 A2999 RMK A01 T01930084  RH  049%=      5-min Rain = 0
KWA1 081642Z 23013KT 19/09 A2999 RMK A01 T01940085  RH  049%=      5-min Rain = 0
KWA1 081643Z 23016KT 20/09 A2999 RMK A01 T01960085  RH  049%=      5-min Rain = 0
KWA1 081644Z 23013KT 20/09 A2999 RMK A01 T01970085  RH  048%=      5-min Rain = 0
KWA1 081645Z 24015KT 20/09 A2999 RMK A01 T01980086  RH  048%=      5-min Rain = 0
KWA1 081646Z 24014KT 20/08 A2999 RMK A01 T01970084  RH  048%=      5-min Rain = 0
KWA1 081647Z 22012KT 20/09 A2999 RMK A01 T01980086  RH  048%=      5-min Rain = 0
KWA1 081648Z 22013KT 20/09 A2999 RMK A01 T01990085  RH  048%=      5-min Rain = 0
KWA1 081649Z 23015KT 20/09 A2999 RMK A01 T01980085  RH  048%=      5-min Rain = 0
KWA1 081650Z 23013KT 20/08 A2999 RMK A01 T01980084  RH  048%=      5-min Rain = 0
KWA1 081651Z 24013KT 20/08 A2999 RMK A01 T01970084  RH  048%=      5-min Rain = 0
KWA1 081652Z 23016KT 20/08 A2999 RMK A01 T01970083  RH  048%=      5-min Rain = 0
KWA1 081653Z 23015KT 20/08 A2999 RMK A01 T01970084  RH  048%=      5-min Rain = 0
KWA1 081654Z 23015KT 20/08 A2999 RMK A01 T01980084  RH  048%=      5-min Rain = 0
KWA1 081655Z 22012KT 20/09 A2999 RMK A01 T01990085  RH  048%=      5-min Rain = 0
KWA1 081656Z 23015KT 20/09 A2998 RMK A01 T02010085  RH  047%=      5-min Rain = 0
KWA1 081657Z 23017KT 20/08 A2998 RMK A01 T02020084  RH  046%=      5-min Rain = 0
KWA1 081658Z 23016KT 20/08 A2998 RMK A01 T02020084  RH  046%=      5-min Rain = 0
KWA1 081659Z 22012KT 20/08 A2998 RMK A01 T02010083  RH  047%=      5-min Rain = 0
KWA1 081700Z 22014KT 20/09 A2998 RMK A01 T02020086  RH  047%=      5-min Rain = 0
KWA1 081701Z 23016KT 20/09 A2998 RMK A01 T02040085  RH  046%=      5-min Rain = 0
KWA1 081702Z 22015KT 20/09 A2998 RMK A01 T02040085  RH  046%=      5-min Rain = 0
KWA1 081703Z 22014KT 20/09 A2998 RMK A01 T02040085  RH  046%=      5-min Rain = 0
KWA1 081704Z 23015KT 20/09 A2998 RMK A01 T02040085  RH  046%=      5-min Rain = 0
KWA1 081705Z 24016KT 21/09 A2998 RMK A01 T02050085  RH  046%=      5-min Rain = 0
KWA1 081706Z 24015KT 21/08 A2998 RMK A01 T02050084  RH  046%=      5-min Rain = 0
KWA1 081707Z 24014KT 21/09 A2998 RMK A01 T02050086  RH  046%=      5-min Rain = 0
KWA1 081708Z 23016KT 21/09 A2998 RMK A01 T02060085  RH  046%=      5-min Rain = 0
KWA1 081709Z 23015KT 21/09 A2998 RMK A01 T02060085  RH  046%=      5-min Rain = 0
KWA1 081710Z 24016KT 21/09 A2998 RMK A01 T02060085  RH  045%=      5-min Rain = 0
KWA1 081711Z 23013G19KT 21/09 A2998 RMK A01 T02070086  RH  046%=      5-min Rain = 0
KWA1 081712Z 23016G21KT 21/08 A2998 RMK A01 T02080084  RH  045%=      5-min Rain = 0
KWA1 081713Z 23014KT 21/09 A2998 RMK A01 T02080086  RH  045%=      5-min Rain = 0
KWA1 081714Z 23013KT 21/09 A2998 RMK A01 T02090085  RH  045%=      5-min Rain = 0
KWA1 081715Z 23015KT 21/09 A2998 RMK A01 T02090085  RH  045%=      5-min Rain = 0
KWA1 081716Z 23014KT 21/08 A2998 RMK A01 T02090084  RH  045%=      5-min Rain = 0
KWA1 081717Z 23013KT 21/09 A2998 RMK A01 T02100086  RH  045%=      5-min Rain = 0
KWA1 081718Z 22014KT 21/09 A2997 RMK A01 T02120086  RH  044%=      5-min Rain = 0
KWA1 081719Z 23014KT 21/09 A2997 RMK A01 T02100086  RH  045%=      5-min Rain = 0
KWA1 081720Z 24014KT 21/09 A2997 RMK A01 T02100086  RH  045%=      5-min Rain = 0
KWA1 081721Z 24015G20KT 21/08 A2997 RMK A01 T02100084  RH  044%=      5-min Rain = 0
KWA1 081722Z 24013KT 21/08 A2997 RMK A01 T02110084  RH  044%=      5-min Rain = 0
KWA1 081723Z 24018KT 21/09 A2997 RMK A01 T02120085  RH  044%=      5-min Rain = 0
KWA1 081724Z 24015G20KT 21/08 A2997 RMK A01 T02110083  RH  044%=      5-min Rain = 0
KWA1 081725Z 23015KT 21/08 A2997 RMK A01 T02090084  RH  044%=      5-min Rain = 0
KWA1 081726Z 24015KT 21/08 A2997 RMK A01 T02090083  RH  044%=      5-min Rain = 0
KWA1 081727Z 24016KT 21/08 A2997 RMK A01 T02100084  RH  044%=      5-min Rain = 0
KWA1 081728Z 24014KT 21/08 A2997 RMK A01 T02090084  RH  045%=      5-min Rain = 0
KWA1 081729Z 23013KT 21/09 A2997 RMK A01 T02090085  RH  045%=      5-min Rain = 0
KWA1 081730Z 23017KT 21/09 A2997 RMK A01 T02120085  RH  044%=      5-min Rain = 0
KWA1 081731Z 23017KT 21/08 A2997 RMK A01 T02130084  RH  044%=      5-min Rain = 0
KWA1 081732Z 23014G19KT 21/09 A2997 RMK A01 T02130085  RH  044%=      5-min Rain = 0
KWA1 081733Z 23014G19KT 22/09 A2997 RMK A01 T02150085  RH  043%=      5-min Rain = 0
KWA1 081734Z 23016KT 22/09 A2997 RMK A01 T02150085  RH  043%=      5-min Rain = 0
KWA1 081735Z 23014KT 22/09 A2997 RMK A01 T02150085  RH  043%=      5-min Rain = 0
KWA1 081736Z 23015G20KT 22/09 A2997 RMK A01 T02160086  RH  043%=      5-min Rain = 0
KWA1 081737Z 24016KT 22/09 A2997 RMK A01 T02170085  RH  043%=      5-min Rain = 0
KWA1 081738Z 23017KT 22/09 A2997 RMK A01 T02170085  RH  043%=      5-min Rain = 0
KWA1 081739Z 23015KT 22/09 A2996 RMK A01 T02170085  RH  043%=      5-min Rain = 0
KWA1 081740Z 22012KT 22/09 A2996 RMK A01 T02170086  RH  043%=      5-min Rain = 0
KWA1 081741Z 23015KT 22/09 A2996 RMK A01 T02200087  RH  042%=      5-min Rain = 0
KWA1 081742Z 23016KT 22/09 A2996 RMK A01 T02210085  RH  042%=      5-min Rain = 0
KWA1 081743Z 23016KT 22/09 A2996 RMK A01 T02210085  RH  042%=      5-min Rain = 0
KWA1 081744Z 23017KT 22/09 A2996 RMK A01 T02230085  RH  041%=      5-min Rain = 0
KWA1 081745Z 24018KT 22/08 A2996 RMK A01 T02230084  RH  041%=      5-min Rain = 0
KWA1 081746Z 23016KT 22/09 A2996 RMK A01 T02210085  RH  042%=      5-min Rain = 0
KWA1 081747Z 23012KT 22/09 A2996 RMK A01 T02210086  RH  042%=      5-min Rain = 0
KWA1 081748Z 24016KT 22/09 A2996 RMK A01 T02220085  RH  041%=      5-min Rain = 0
KWA1 081749Z 24017KT 22/09 A2996 RMK A01 T02230085  RH  041%=      5-min Rain = 0
KWA1 081750Z 23014KT 22/09 A2996 RMK A01 T02240086  RH  041%=      5-min Rain = 0
KWA1 081751Z 23013KT 23/09 A2996 RMK A01 T02260087  RH  041%=      5-min Rain = 0
KWA1 081752Z 24016KT 23/09 A2995 RMK A01 T02290086  RH  040%=      5-min Rain = 0
KWA1 081753Z 23018KT 23/08 A2995 RMK A01 T02270084  RH  040%=      5-min Rain = 0
KWA1 081754Z 23016KT 23/09 A2995 RMK A01 T02250085  RH  041%=      5-min Rain = 0
KWA1 081755Z 23017KT 23/09 A2995 RMK A01 T02250085  RH  041%=      5-min Rain = 0
KWA1 081756Z 23014KT 23/09 A2995 RMK A01 T02250085  RH  041%=      5-min Rain = 0
KWA1 081757Z 22016G21KT 23/09 A2995 RMK A01 T02250086  RH  041%=      5-min Rain = 0
KWA1 081758Z 23018KT 23/09 A2995 RMK A01 T02260086  RH  041%=      5-min Rain = 0
KWA1 081759Z 23017KT 22/08 A2995 RMK A01 T02240084  RH  041%=      5-min Rain = 0
KWA1 081800Z 23019KT 22/08 A2995 RMK A01 T02240084  RH  041%=      5-min Rain = 0
KWA1 081801Z 23016KT 22/08 A2995 RMK A01 T02230084  RH  041%=      5-min Rain = 0
KWA1 081802Z 23017KT 22/08 A2995 RMK A01 T02230084  RH  041%=      5-min Rain = 0
KWA1 081803Z 22015KT 23/09 A2995 RMK A01 T02250085  RH  041%=      5-min Rain = 0
KWA1 081804Z 22017KT 23/09 A2994 RMK A01 T02260085  RH  041%=      5-min Rain = 0
KWA1 081805Z 23017KT 23/09 A2994 RMK A01 T02280085  RH  040%=      5-min Rain = 0
KWA1 081806Z 23016KT 23/09 A2994 RMK A01 T02290086  RH  040%=      5-min Rain = 0
KWA1 081807Z 23018KT 23/08 A2994 RMK A01 T02290084  RH  039%=      5-min Rain = 0
KWA1 081808Z 24020KT 23/08 A2994 RMK A01 T02270083  RH  040%=      5-min Rain = 0
KWA1 081809Z 24021KT 23/08 A2994 RMK A01 T02270083  RH  040%=      5-min Rain = 0
KWA1 081810Z 23018KT 23/08 A2994 RMK A01 T02260084  RH  040%=      5-min Rain = 0
KWA1 081811Z 23019KT 23/08 A2994 RMK A01 T02270084  RH  040%=      5-min Rain = 0
KWA1 081812Z 23020KT 23/08 A2994 RMK A01 T02280084  RH  040%=      5-min Rain = 0
KWA1 081813Z 24017KT 23/09 A2994 RMK A01 T02280085  RH  040%=      5-min Rain = 0
KWA1 081814Z 23015KT 23/09 A2994 RMK A01 T02280085  RH  040%=      5-min Rain = 0
KWA1 081815Z 24018KT 23/08 A2994 RMK A01 T02280084  RH  040%=      5-min Rain = 0
KWA1 081816Z 24016KT 23/08 A2994 RMK A01 T02280083  RH  039%=      5-min Rain = 0
KWA1 081817Z 23017KT 23/09 A2994 RMK A01 T02290085  RH  040%=      5-min Rain = 0
KWA1 081818Z 24018KT 23/09 A2994 RMK A01 T02300085  RH  039%=      5-min Rain = 0
KWA1 081819Z 24017KT 23/08 A2994 RMK A01 T02290083  RH  039%=      5-min Rain = 0
KWA1 081820Z 24015KT 23/09 A2994 RMK A01 T02270085  RH  040%=      5-min Rain = 0
KWA1 081821Z 23012KT 23/09 A2994 RMK A01 T02290086  RH  040%=      5-min Rain = 0
KWA1 081822Z 23014G19KT 23/09 A2994 RMK A01 T02300086  RH  040%=      5-min Rain = 0
KWA1 081823Z 22016KT 23/09 A2993 RMK A01 T02310085  RH  039%=      5-min Rain = 0
KWA1 081824Z 23015KT 23/09 A2993 RMK A01 T02310085  RH  039%=      5-min Rain = 0
KWA1 081825Z 23015KT 23/09 A2993 RMK A01 T02300086  RH  040%=      5-min Rain = 0
KWA1 081826Z 22012G17KT 23/09 A2993 RMK A01 T02310087  RH  040%=      5-min Rain = 0
KWA1 081827Z 23014KT 23/09 A2993 RMK A01 T02330087  RH  039%=      5-min Rain = 0
KWA1 081828Z 22011KT 23/09 A2993 RMK A01 T02340087  RH  039%=      5-min Rain = 0
KWA1 081829Z 22012G17KT 24/09 A2993 RMK A01 T02350088  RH  039%=      5-min Rain = 0
KWA1 081830Z 22015KT 24/09 A2993 RMK A01 T02350085  RH  038%=      5-min Rain = 0
KWA1 081831Z 22016KT 23/08 A2993 RMK A01 T02340084  RH  038%=      5-min Rain = 0
KWA1 081832Z 23014KT 23/08 A2993 RMK A01 T02320084  RH  039%=      5-min Rain = 0
KWA1 081833Z 23013KT 23/09 A2993 RMK A01 T02340087  RH  039%=      5-min Rain = 0
KWA1 081834Z 23015KT 24/09 A2993 RMK A01 T02360086  RH  038%=      5-min Rain = 0
KWA1 081835Z 23013KT 24/09 A2993 RMK A01 T02360085  RH  038%=      5-min Rain = 0
KWA1 081836Z 24013KT 24/09 A2993 RMK A01 T02360085  RH  038%=      5-min Rain = 0
KWA1 081837Z 23014KT 24/09 A2993 RMK A01 T02360085  RH  038%=      5-min Rain = 0
KWA1 081838Z 23016KT 24/09 A2993 RMK A01 T02350085  RH  038%=      5-min Rain = 0
KWA1 081839Z 23015KT 24/08 A2993 RMK A01 T02350084  RH  038%=      5-min Rain = 0
KWA1 081840Z 23015KT 24/08 A2993 RMK A01 T02350084  RH  038%=      5-min Rain = 0
KWA1 081841Z 22014KT 23/08 A2993 RMK A01 T02340084  RH  038%=      5-min Rain = 0
KWA1 081842Z 22013KT 23/09 A2993 RMK A01 T02330085  RH  039%=      5-min Rain = 0
KWA1 081843Z 23014KT 23/09 A2993 RMK A01 T02330086  RH  039%=      5-min Rain = 0
KWA1 081844Z 22013KT 23/09 A2993 RMK A01 T02330086  RH  039%=      5-min Rain = 0
KWA1 081845Z 23011KT 23/09 A2993 RMK A01 T02340088  RH  039%=      5-min Rain = 0
KWA1 081846Z 23013KT 24/09 A2993 RMK A01 T02370088  RH  039%=      5-min Rain = 0
KWA1 081847Z 23015KT 24/09 A2992 RMK A01 T02390087  RH  038%=      5-min Rain = 0
KWA1 081848Z 23017KT 24/09 A2992 RMK A01 T02380085  RH  038%=      5-min Rain = 0
KWA1 081849Z 23013KT 24/09 A2992 RMK A01 T02360085  RH  038%=      5-min Rain = 0
KWA1 081850Z 22015KT 24/09 A2992 RMK A01 T02360086  RH  038%=      5-min Rain = 0
KWA1 081851Z 22015KT 24/09 A2992 RMK A01 T02380086  RH  038%=      5-min Rain = 0
KWA1 081852Z 23014KT 24/09 A2992 RMK A01 T02380085  RH  038%=      5-min Rain = 0
KWA1 081853Z 22014KT 24/09 A2992 RMK A01 T02400087  RH  038%=      5-min Rain = 0
KWA1 081854Z 22014KT 24/09 A2992 RMK A01 T02410086  RH  037%=      5-min Rain = 0
KWA1 081855Z 22016KT 24/09 A2992 RMK A01 T02410085  RH  037%=      5-min Rain = 0
KWA1 081856Z 22015KT 24/09 A2992 RMK A01 T02400085  RH  037%=      5-min Rain = 0
KWA1 081857Z 23016KT 24/09 A2991 RMK A01 T02400085  RH  037%=      5-min Rain = 0
KWA1 081858Z 22016KT 24/09 A2991 RMK A01 T02410085  RH  037%=      5-min Rain = 0
KWA1 081859Z 22015KT 24/09 A2991 RMK A01 T02410085  RH  037%=      5-min Rain = 0
KWA1 081900Z 23017KT 24/09 A2991 RMK A01 T02410085  RH  037%=      5-min Rain = 0
KWA1 081901Z 23014KT 24/09 A2991 RMK A01 T02400085  RH  037%=      5-min Rain = 0
KWA1 081902Z 22017KT 24/09 A2991 RMK A01 T02410086  RH  037%=      5-min Rain = 0
KWA1 081903Z 23013KT 24/09 A2991 RMK A01 T02410086  RH  037%=      5-min Rain = 0
KWA1 081904Z 23014KT 24/09 A2991 RMK A01 T02420086  RH  037%=      5-min Rain = 0
KWA1 081905Z 23011KT 24/09 A2991 RMK A01 T02420086  RH  037%=      5-min Rain = 0
KWA1 081906Z 22014KT 24/09 A2991 RMK A01 T02440088  RH  037%=      5-min Rain = 0
KWA1 081907Z 23013KT 24/09 A2991 RMK A01 T02440087  RH  037%=      5-min Rain = 0
KWA1 081908Z 23014KT 24/09 A2991 RMK A01 T02440087  RH  037%=      5-min Rain = 0
KWA1 081909Z 23017KT 24/09 A299 RMK A01 T02440086  RH  037%=      5-min Rain = 0
KWA1 081910Z 23015KT 24/09 A299 RMK A01 T02430085  RH  037%=      5-min Rain = 0
KWA1 081911Z 24014KT 24/09 A299 RMK A01 T02430085  RH  037%=      5-min Rain = 0
KWA1 081912Z 23014KT 24/09 A299 RMK A01 T02440086  RH  037%=      5-min Rain = 0
KWA1 081913Z 24015KT 25/09 A299 RMK A01 T02450085  RH  036%=      5-min Rain = 0
KWA1 081914Z 23010KT 25/08 A299 RMK A01 T02450084  RH  036%=      5-min Rain = 0
KWA1 081915Z 22014KT 25/09 A299 RMK A01 T02470085  RH  036%=      5-min Rain = 0
KWA1 081916Z 24015KT 25/09 A299 RMK A01 T02480085  RH  036%=      5-min Rain = 0
KWA1 081917Z 23016KT 25/08 A299 RMK A01 T02480084  RH  035%=      5-min Rain = 0
KWA1 081918Z 23015KT 25/08 A299 RMK A01 T02480084  RH  035%=      5-min Rain = 0
KWA1 081919Z 23014KT 25/09 A299 RMK A01 T02480085  RH  035%=      5-min Rain = 0
KWA1 081920Z 22015KT 25/09 A299 RMK A01 T02500086  RH  035%=      5-min Rain = 0
KWA1 081921Z 22014KT 25/09 A299 RMK A01 T02500086  RH  035%=      5-min Rain = 0
KWA1 081922Z 22011KT 25/09 A299 RMK A01 T02490086  RH  035%=      5-min Rain = 0
KWA1 081923Z 23012G18KT 25/09 A299 RMK A01 T02520090  RH  036%=      5-min Rain = 0
KWA1 081924Z 22016KT 26/09 A299 RMK A01 T02550087  RH  035%=      5-min Rain = 0
KWA1 081925Z 22015KT 25/09 A2989 RMK A01 T02540086  RH  034%=      5-min Rain = 0
KWA1 081926Z 23014KT 25/09 A299 RMK A01 T02530086  RH  035%=      5-min Rain = 0
KWA1 081927Z 23014KT 25/09 A299 RMK A01 T02520086  RH  035%=      5-min Rain = 0
KWA1 081928Z 23015KT 25/09 A299 RMK A01 T02520085  RH  035%=      5-min Rain = 0
KWA1 081929Z 23015KT 25/09 A299 RMK A01 T02520086  RH  035%=      5-min Rain = 0
KWA1 081930Z 23014KT 25/09 A2989 RMK A01 T02530086  RH  035%=      5-min Rain = 0
KWA1 081931Z 24014KT 25/08 A2989 RMK A01 T02530084  RH  034%=      5-min Rain = 0
KWA1 081932Z 23014KT 25/08 A2989 RMK A01 T02510083  RH  034%=      5-min Rain = 0
KWA1 081933Z 23014KT 25/08 A2989 RMK A01 T02490082  RH  034%=      5-min Rain = 0
KWA1 081934Z 23015KT 25/08 A2989 RMK A01 T02490082  RH  034%=      5-min Rain = 0
KWA1 081935Z 22014KT 25/08 A2989 RMK A01 T02490084  RH  035%=      5-min Rain = 0
KWA1 081936Z 23014G19KT 25/09 A2989 RMK A01 T02490085  RH  035%=      5-min Rain = 0
KWA1 081937Z 24012KT 25/08 A2989 RMK A01 T02500083  RH  035%=      5-min Rain = 0
KWA1 081938Z 22015KT 25/08 A2989 RMK A01 T02510084  RH  034%=      5-min Rain = 0
KWA1 081939Z 22015KT 25/08 A2989 RMK A01 T02500083  RH  034%=      5-min Rain = 0
KWA1 081940Z 24014KT 25/08 A2989 RMK A01 T02490082  RH  034%=      5-min Rain = 0
KWA1 081941Z 24016KT 25/08 A2989 RMK A01 T02490082  RH  035%=      5-min Rain = 0
KWA1 081942Z 23015KT 25/08 A2989 RMK A01 T02500083  RH  034%=      5-min Rain = 0
KWA1 081943Z 22016G21KT 25/08 A2989 RMK A01 T02500082  RH  034%=      5-min Rain = 0
KWA1 081944Z 23018KT 25/08 A2988 RMK A01 T02520082  RH  034%=      5-min Rain = 0
KWA1 081945Z 23016KT 25/08 A2989 RMK A01 T02520081  RH  034%=      5-min Rain = 0
KWA1 081946Z 24014KT 25/08 A2988 RMK A01 T02520082  RH  034%=      5-min Rain = 0
KWA1 081947Z 24015KT 25/08 A2988 RMK A01 T02530082  RH  034%=      5-min Rain = 0
KWA1 081948Z 22015KT 25/08 A2988 RMK A01 T02530080  RH  033%=      5-min Rain = 0
KWA1 081949Z 23016KT 25/08 A2988 RMK A01 T02530080  RH  033%=      5-min Rain = 0
KWA1 081950Z 23016KT 25/08 A2988 RMK A01 T02530077  RH  033%=      5-min Rain = 0
KWA1 081951Z 23018KT 25/08 A2988 RMK A01 T02530077  RH  033%=      5-min Rain = 0
KWA1 081952Z 23016KT 25/08 A2988 RMK A01 T02520076  RH  033%=      5-min Rain = 0
KWA1 081953Z 23014G20KT 25/08 A2988 RMK A01 T02530077  RH  033%=      5-min Rain = 0
KWA1 081954Z 23016G21KT 26/08 A2988 RMK A01 T02550076  RH  032%=      5-min Rain = 0
KWA1 081955Z 24016KT 26/08 A2988 RMK A01 T02570077  RH  032%=      5-min Rain = 0
KWA1 081956Z 24017KT 26/08 A2988 RMK A01 T02570078  RH  032%=      5-min Rain = 0
KWA1 081957Z 22014KT 26/08 A2988 RMK A01 T02550080  RH  033%=      5-min Rain = 0
KWA1 081958Z 21017KT 26/08 A2988 RMK A01 T02550081  RH  033%=      5-min Rain = 0
KWA1 081959Z 22016KT 25/08 A2987 RMK A01 T02540081  RH  033%=      5-min Rain = 0
KWA1 082000Z 22014KT 25/08 A2987 RMK A01 T02530081  RH  033%=      5-min Rain = 0
KWA1 082001Z 22016KT 25/08 A2987 RMK A01 T02540081  RH  033%=      5-min Rain = 0
KWA1 082002Z 22015KT 26/08 A2987 RMK A01 T02550081  RH  033%=      5-min Rain = 0
KWA1 082003Z 22016KT 26/08 A2987 RMK A01 T02550081  RH  033%=      5-min Rain = 0
KWA1 082004Z 22015KT 26/08 A2987 RMK A01 T02570081  RH  033%=      5-min Rain = 0
KWA1 082005Z 22015KT 26/08 A2987 RMK A01 T02560081  RH  033%=      5-min Rain = 0
KWA1 082006Z 21013KT 26/08 A2987 RMK A01 T02560081  RH  033%=      5-min Rain = 0
KWA1 082007Z 22014G20KT 26/08 A2987 RMK A01 T02570082  RH  033%=      5-min Rain = 0
KWA1 082008Z 23014G19KT 26/08 A2987 RMK A01 T02570082  RH  033%=      5-min Rain = 0
KWA1 082009Z 22014G20KT 26/08 A2987 RMK A01 T02560083  RH  033%=      5-min Rain = 0
KWA1 082010Z 22012KT 26/08 A2987 RMK A01 T02570081  RH  033%=      5-min Rain = 0
KWA1 082011Z 22014KT 26/08 A2987 RMK A01 T02590081  RH  032%=      5-min Rain = 0
KWA1 082012Z 21016KT 26/08 A2987 RMK A01 T02580081  RH  032%=      5-min Rain = 0
KWA1 082013Z 22018KT 26/08 A2987 RMK A01 T02580081  RH  032%=      5-min Rain = 0
KWA1 082014Z 22017KT 26/08 A2987 RMK A01 T02580080  RH  032%=      5-min Rain = 0
KWA1 082015Z 22017KT 26/08 A2987 RMK A01 T02560080  RH  033%=      5-min Rain = 0
KWA1 082016Z 23015G20KT 26/08 A2987 RMK A01 T02560081  RH  033%=      5-min Rain = 0
KWA1 082017Z 23013KT 26/08 A2987 RMK A01 T02560081  RH  033%=      5-min Rain = 0
KWA1 082018Z 23013KT 26/08 A2987 RMK A01 T02570082  RH  033%=      5-min Rain = 0
KWA1 082019Z 23015G20KT 26/08 A2987 RMK A01 T02590080  RH  032%=      5-min Rain = 0
KWA1 082020Z 22017KT 26/08 A2987 RMK A01 T02600081  RH  032%=      5-min Rain = 0
KWA1 082021Z 22017KT 26/08 A2987 RMK A01 T02590081  RH  032%=      5-min Rain = 0
KWA1 082022Z 23015KT 26/08 A2987 RMK A01 T02570080  RH  033%=      5-min Rain = 0
KWA1 082023Z 23015KT 26/08 A2987 RMK A01 T02570081  RH  033%=      5-min Rain = 0
KWA1 082024Z 22016KT 26/08 A2987 RMK A01 T02570082  RH  033%=      5-min Rain = 0
KWA1 082025Z 22015KT 26/08 A2987 RMK A01 T02590082  RH  033%=      5-min Rain = 0
KWA1 082026Z 22015KT 26/08 A2987 RMK A01 T02610082  RH  032%=      5-min Rain = 0
KWA1 082027Z 23016KT 26/08 A2987 RMK A01 T02610081  RH  032%=      5-min Rain = 0
KWA1 082028Z 23013KT 26/08 A2987 RMK A01 T02600081  RH  032%=      5-min Rain = 0
KWA1 082029Z 23014KT 26/08 A2987 RMK A01 T02590082  RH  032%=      5-min Rain = 0
KWA1 082030Z 23013KT 26/08 A2987 RMK A01 T02590081  RH  032%=      5-min Rain = 0
KWA1 082031Z 22015G20KT 26/08 A2987 RMK A01 T02580082  RH  033%=      5-min Rain = 0
KWA1 082032Z 22016KT 26/08 A2987 RMK A01 T02570082  RH  033%=      5-min Rain = 0
KWA1 082033Z 22014KT 26/08 A2987 RMK A01 T02560082  RH  033%=      5-min Rain = 0
KWA1 082034Z 21016KT 26/08 A2987 RMK A01 T02550082  RH  033%=      5-min Rain = 0
KWA1 082035Z 21014KT 26/08 A2987 RMK A01 T02560082  RH  033%=      5-min Rain = 0
KWA1 082036Z 22014KT 26/08 A2987 RMK A01 T02570082  RH  033%=      5-min Rain = 0
KWA1 082037Z 22016KT 26/08 A2987 RMK A01 T02590082  RH  033%=      5-min Rain = 0
KWA1 082038Z 22013KT 26/08 A2987 RMK A01 T02580082  RH  033%=      5-min Rain = 0
KWA1 082039Z 22018KT 26/08 A2987 RMK A01 T02590082  RH  033%=      5-min Rain = 0
KWA1 082040Z 22017KT 26/08 A2987 RMK A01 T02580080  RH  032%=      5-min Rain = 0
KWA1 082041Z 21017G22KT 26/08 A2986 RMK A01 T02560080  RH  033%=      5-min Rain = 0
KWA1 082042Z 21015KT 26/08 A2986 RMK A01 T02560081  RH  033%=      5-min Rain = 0
KWA1 082043Z 22013G18KT 26/08 A2986 RMK A01 T02560081  RH  033%=      5-min Rain = 0
KWA1 082044Z 22015KT 26/08 A2986 RMK A01 T02570082  RH  033%=      5-min Rain = 0
KWA1 082045Z 21015KT 26/08 A2986 RMK A01 T02560081  RH  033%=      5-min Rain = 0
KWA1 082046Z 21015G20KT 26/08 A2986 RMK A01 T02570082  RH  033%=      5-min Rain = 0
KWA1 082047Z 23016KT 26/08 A2986 RMK A01 T02580082  RH  033%=      5-min Rain = 0
KWA1 082048Z 23016KT 26/08 A2986 RMK A01 T02580082  RH  033%=      5-min Rain = 0
KWA1 082049Z 23014KT 26/08 A2986 RMK A01 T02570082  RH  033%=      5-min Rain = 0
KWA1 082050Z 23018KT 26/08 A2986 RMK A01 T02570081  RH  033%=      5-min Rain = 0
KWA1 082051Z 23015KT 26/08 A2986 RMK A01 T02570081  RH  033%=      5-min Rain = 0
KWA1 082052Z 21015KT 26/08 A2986 RMK A01 T02570081  RH  033%=      5-min Rain = 0
KWA1 082053Z 23012KT 26/08 A2986 RMK A01 T02590082  RH  033%=      5-min Rain = 0
KWA1 082054Z 22016KT 26/08 A2986 RMK A01 T02610083  RH  032%=      5-min Rain = 0
KWA1 082055Z 21015KT 26/08 A2986 RMK A01 T02610081  RH  032%=      5-min Rain = 0
KWA1 082056Z 22016KT 26/08 A2986 RMK A01 T02590080  RH  032%=      5-min Rain = 0
KWA1 082057Z 22017KT 26/08 A2986 RMK A01 T02580080  RH  032%=      5-min Rain = 0
KWA1 082058Z 21015G20KT 26/08 A2985 RMK A01 T02570080  RH  032%=      5-min Rain = 0
KWA1 082059Z 21017KT 26/08 A2985 RMK A01 T02580080  RH  032%=      5-min Rain = 0
KWA1 082100Z 21013KT 26/08 A2985 RMK A01 T02580081  RH  032%=      5-min Rain = 0
KWA1 082101Z 21015G20KT 26/08 A2985 RMK A01 T02590081  RH  032%=      5-min Rain = 0
KWA1 082102Z 21017KT 26/08 A2985 RMK A01 T02600081  RH  032%=      5-min Rain = 0
KWA1 082103Z 21017KT 26/08 A2985 RMK A01 T02600080  RH  032%=      5-min Rain = 0
KWA1 082104Z 22016KT 26/08 A2985 RMK A01 T02580080  RH  032%=      5-min Rain = 0
KWA1 082105Z 22016KT 26/08 A2985 RMK A01 T02580080  RH  032%=      5-min Rain = 0
KWA1 082106Z 22017KT 26/08 A2985 RMK A01 T02570080  RH  032%=      5-min Rain = 0
KWA1 082107Z 22013KT 26/08 A2985 RMK A01 T02570081  RH  033%=      5-min Rain = 0
KWA1 082108Z 22014KT 26/08 A2985 RMK A01 T02570081  RH  033%=      5-min Rain = 0
KWA1 082109Z 21013KT 26/08 A2985 RMK A01 T02580081  RH  033%=      5-min Rain = 0
KWA1 082110Z 21014KT 26/08 A2985 RMK A01 T02590082  RH  032%=      5-min Rain = 0
KWA1 082111Z 21015KT 26/08 A2985 RMK A01 T02600081  RH  032%=      5-min Rain = 0
KWA1 082112Z 21015KT 26/08 A2985 RMK A01 T02600081  RH  032%=      5-min Rain = 0
KWA1 082113Z 21015KT 26/08 A2985 RMK A01 T02600081  RH  032%=      5-min Rain = 0
KWA1 082114Z 21014G19KT 26/08 A2985 RMK A01 T02600081  RH  032%=      5-min Rain = 0
KWA1 082115Z 21015G20KT 26/08 A2985 RMK A01 T02600080  RH  032%=      5-min Rain = 0
KWA1 082116Z 21016KT 26/08 A2985 RMK A01 T02600080  RH  032%=      5-min Rain = 0
KWA1 082117Z 22013KT 26/08 A2985 RMK A01 T02590081  RH  032%=      5-min Rain = 0
KWA1 082118Z 22013KT 26/08 A2985 RMK A01 T02590081  RH  032%=      5-min Rain = 0
KWA1 082119Z 21014KT 26/08 A2985 RMK A01 T02580081  RH  032%=      5-min Rain = 0
KWA1 082120Z 22012KT 26/08 A2985 RMK A01 T02580080  RH  032%=      5-min Rain = 0
KWA1 082121Z 21011G17KT 26/08 A2985 RMK A01 T02590082  RH  033%=      5-min Rain = 0
KWA1 082122Z 21016KT 26/08 A2985 RMK A01 T02610081  RH  032%=      5-min Rain = 0
KWA1 082123Z 20016KT 26/08 A2985 RMK A01 T02610081  RH  032%=      5-min Rain = 0
KWA1 082124Z 21015KT 26/08 A2985 RMK A01 T02600080  RH  032%=      5-min Rain = 0
KWA1 082125Z 22013G18KT 26/08 A2985 RMK A01 T02600080  RH  032%=      5-min Rain = 0
KWA1 082126Z 22015KT 26/08 A2985 RMK A01 T02610079  RH  032%=      5-min Rain = 0
KWA1 082127Z 21017KT 26/08 A2985 RMK A01 T02610080  RH  032%=      5-min Rain = 0
KWA1 082128Z 22014KT 26/08 A2986 RMK A01 T02600079  RH  032%=      5-min Rain = 0
KWA1 082129Z 22016KT 26/08 A2986 RMK A01 T02610079  RH  032%=      5-min Rain = 0
KWA1 082130Z 22014KT 26/08 A2986 RMK A01 T02610079  RH  031%=      5-min Rain = 0
KWA1 082131Z 22013KT 26/08 A2985 RMK A01 T02600078  RH  032%=      5-min Rain = 0
KWA1 082132Z 22017KT 26/08 A2985 RMK A01 T02590078  RH  032%=      5-min Rain = 0
KWA1 082133Z 22016KT 26/08 A2985 RMK A01 T02590077  RH  032%=      5-min Rain = 0
KWA1 082134Z 22013KT 26/08 A2985 RMK A01 T02590078  RH  032%=      5-min Rain = 0
KWA1 082135Z 21012KT 26/08 A2985 RMK A01 T02580078  RH  032%=      5-min Rain = 0
KWA1 082136Z 22015KT 26/08 A2985 RMK A01 T02590078  RH  032%=      5-min Rain = 0
KWA1 082137Z 21014KT 26/08 A2985 RMK A01 T02590077  RH  031%=      5-min Rain = 0
KWA1 082138Z 21016KT 26/08 A2985 RMK A01 T02590077  RH  031%=      5-min Rain = 0
KWA1 082139Z 21016KT 26/08 A2985 RMK A01 T02580077  RH  032%=      5-min Rain = 0
KWA1 082140Z 21012KT 26/08 A2985 RMK A01 T02570078  RH  032%=      5-min Rain = 0
KWA1 082141Z 22012KT 26/08 A2985 RMK A01 T02580078  RH  032%=      5-min Rain = 0
KWA1 082142Z 21016KT 26/08 A2985 RMK A01 T02580077  RH  032%=      5-min Rain = 0
KWA1 082143Z 21014KT 26/08 A2985 RMK A01 T02580076  RH  031%=      5-min Rain = 0
KWA1 082144Z 22015KT 26/08 A2985 RMK A01 T02580076  RH  031%=      5-min Rain = 0
KWA1 082145Z 22012KT 26/08 A2985 RMK A01 T02570076  RH  032%=      5-min Rain = 0
KWA1 082146Z 20013G18KT 26/08 A2985 RMK A01 T02580078  RH  032%=      5-min Rain = 0
KWA1 082147Z 20012KT 26/08 A2985 RMK A01 T02580079  RH  032%=      5-min Rain = 0
KWA1 082148Z 21015KT 26/08 A2985 RMK A01 T02580079  RH  032%=      5-min Rain = 0
KWA1 082149Z 21017KT 26/08 A2985 RMK A01 T02570078  RH  032%=      5-min Rain = 0
KWA1 082150Z 21014KT 26/08 A2985 RMK A01 T02570077  RH  032%=      5-min Rain = 0
KWA1 082151Z 22011G16KT 26/08 A2985 RMK A01 T02570078  RH  032%=      5-min Rain = 0
KWA1 082152Z 23014KT 26/08 A2985 RMK A01 T02570078  RH  032%=      5-min Rain = 0
KWA1 082153Z 22014KT 26/08 A2985 RMK A01 T02570078  RH  032%=      5-min Rain = 0
KWA1 082154Z 22012KT 26/08 A2985 RMK A01 T02570078  RH  032%=      5-min Rain = 0
KWA1 082155Z 22009KT 26/08 A2985 RMK A01 T02570078  RH  032%=      5-min Rain = 0
KWA1 082156Z 21012KT 26/08 A2985 RMK A01 T02570078  RH  032%=      5-min Rain = 0
KWA1 082157Z 21013KT 26/08 A2985 RMK A01 T02570078  RH  032%=      5-min Rain = 0
KWA1 082158Z 21014KT 26/08 A2985 RMK A01 T02570078  RH  032%=      5-min Rain = 0
KWA1 082159Z 21014KT 26/08 A2985 RMK A01 T02560078  RH  032%=      5-min Rain = 0
KWA1 082200Z 22015KT 26/08 A2985 RMK A01 T02560077  RH  032%=      5-min Rain = 0
KWA1 082201Z 21012KT 26/08 A2985 RMK A01 T02560077  RH  032%=      5-min Rain = 0
KWA1 082202Z 21012KT 26/08 A2985 RMK A01 T02560077  RH  032%=      5-min Rain = 0
KWA1 082203Z 21013KT 26/08 A2985 RMK A01 T02550077  RH  032%=      5-min Rain = 0
KWA1 082204Z 21014KT 26/08 A2985 RMK A01 T02550077  RH  032%=      5-min Rain = 0
KWA1 082205Z 21014KT 25/08 A2985 RMK A01 T02540077  RH  032%=      5-min Rain = 0
KWA1 082206Z 21015KT 25/08 A2985 RMK A01 T02540076  RH  032%=      5-min Rain = 0
KWA1 082207Z 21012KT 25/08 A2985 RMK A01 T02540076  RH  032%=      5-min Rain = 0
KWA1 082208Z 21015KT 25/08 A2985 RMK A01 T02530076  RH  032%=      5-min Rain = 0
KWA1 082209Z 21016KT 25/08 A2985 RMK A01 T02530076  RH  032%=      5-min Rain = 0
KWA1 082210Z 21014KT 25/08 A2985 RMK A01 T02520076  RH  032%=      5-min Rain = 0
KWA1 082211Z 21012KT 25/08 A2985 RMK A01 T02520077  RH  033%=      5-min Rain = 0
KWA1 082212Z 21012KT 25/08 A2985 RMK A01 T02520076  RH  033%=      5-min Rain = 0
KWA1 082213Z 21012KT 25/08 A2985 RMK A01 T02520076  RH  033%=      5-min Rain = 0
KWA1 082214Z 21013G18KT 25/08 A2985 RMK A01 T02520077  RH  033%=      5-min Rain = 0
KWA1 082215Z 22013KT 25/08 A2985 RMK A01 T02520077  RH  033%=      5-min Rain = 0
KWA1 082216Z 22013G18KT 25/08 A2985 RMK A01 T02520078  RH  033%=      5-min Rain = 0
KWA1 082217Z 21014KT 25/08 A2985 RMK A01 T02510077  RH  033%=      5-min Rain = 0
KWA1 082218Z 22016KT 25/08 A2985 RMK A01 T02520077  RH  033%=      5-min Rain = 0
KWA1 082219Z 21013KT 25/08 A2985 RMK A01 T02510076  RH  033%=      5-min Rain = 0
KWA1 082220Z 22013KT 25/08 A2985 RMK A01 T02510076  RH  033%=      5-min Rain = 0
KWA1 082221Z 22012KT 25/08 A2985 RMK A01 T02510077  RH  033%=      5-min Rain = 0
KWA1 082222Z 21011KT 25/08 A2985 RMK A01 T02510076  RH  033%=      5-min Rain = 0
KWA1 082223Z 21012KT 25/08 A2985 RMK A01 T02510077  RH  033%=      5-min Rain = 0
KWA1 082224Z 21011KT 25/08 A2985 RMK A01 T02510077  RH  033%=      5-min Rain = 0
KWA1 082225Z 21014KT 25/08 A2985 RMK A01 T02510077  RH  033%=      5-min Rain = 0
KWA1 082226Z 21012KT 25/08 A2985 RMK A01 T02510077  RH  033%=      5-min Rain = 0
KWA1 082227Z 21012KT 25/08 A2985 RMK A01 T02500078  RH  033%=      5-min Rain = 0
KWA1 082228Z 21013KT 25/08 A2985 RMK A01 T02500077  RH  033%=      5-min Rain = 0
KWA1 082229Z 21012KT 25/08 A2985 RMK A01 T02500077  RH  033%=      5-min Rain = 0
KWA1 082230Z 20011KT 25/08 A2985 RMK A01 T02490077  RH  033%=      5-min Rain = 0
KWA1 082231Z 21012KT 25/08 A2985 RMK A01 T02490077  RH  034%=      5-min Rain = 0
KWA1 082232Z 21013KT 25/08 A2985 RMK A01 T02480078  RH  034%=      5-min Rain = 0
KWA1 082233Z 20011KT 25/08 A2985 RMK A01 T02480078  RH  034%=      5-min Rain = 0
KWA1 082234Z 20014KT 25/08 A2985 RMK A01 T02470078  RH  034%=      5-min Rain = 0
KWA1 082235Z 20013KT 25/08 A2985 RMK A01 T02470078  RH  034%=      5-min Rain = 0
KWA1 082236Z 20013KT 25/08 A2984 RMK A01 T02470078  RH  034%=      5-min Rain = 0
KWA1 082237Z 19013KT 25/08 A2984 RMK A01 T02460079  RH  034%=      5-min Rain = 0
KWA1 082238Z 19013KT 25/08 A2984 RMK A01 T02450078  RH  034%=      5-min Rain = 0
KWA1 082239Z 20013KT 25/08 A2984 RMK A01 T02450078  RH  035%=      5-min Rain = 0
KWA1 082240Z 20012KT 24/08 A2984 RMK A01 T02440079  RH  035%=      5-min Rain = 0
KWA1 082241Z 20012KT 24/08 A2984 RMK A01 T02440079  RH  035%=      5-min Rain = 0
KWA1 082242Z 20013KT 24/08 A2984 RMK A01 T02430079  RH  035%=      5-min Rain = 0
KWA1 082243Z 20013KT 24/08 A2985 RMK A01 T02430079  RH  035%=      5-min Rain = 0
KWA1 082244Z 20013KT 24/08 A2984 RMK A01 T02430079  RH  035%=      5-min Rain = 0
KWA1 082245Z 21013KT 24/08 A2985 RMK A01 T02430079  RH  035%=      5-min Rain = 0
KWA1 082246Z 21013KT 24/08 A2985 RMK A01 T02430078  RH  035%=      5-min Rain = 0
KWA1 082247Z 20013KT 24/08 A2985 RMK A01 T02430079  RH  035%=      5-min Rain = 0
KWA1 082248Z 20012KT 24/08 A2985 RMK A01 T02420079  RH  035%=      5-min Rain = 0
KWA1 082249Z 20011KT 24/08 A2985 RMK A01 T02420079  RH  035%=      5-min Rain = 0
KWA1 082250Z 20011KT 24/08 A2985 RMK A01 T02410079  RH  035%=      5-min Rain = 0
KWA1 082251Z 20013KT 24/08 A2985 RMK A01 T02400079  RH  036%=      5-min Rain = 0
KWA1 082252Z 21013KT 24/08 A2985 RMK A01 T02400078  RH  036%=      5-min Rain = 0
KWA1 082253Z 21011KT 24/08 A2985 RMK A01 T02400078  RH  035%=      5-min Rain = 0
KWA1 082254Z 20014KT 24/08 A2985 RMK A01 T02400078  RH  035%=      5-min Rain = 0
KWA1 082255Z 21013KT 24/08 A2985 RMK A01 T02390078  RH  036%=      5-min Rain = 0
KWA1 082256Z 20013KT 24/08 A2985 RMK A01 T02390077  RH  035%=      5-min Rain = 0
KWA1 082257Z 20011KT 24/08 A2985 RMK A01 T02390077  RH  036%=      5-min Rain = 0
KWA1 082258Z 20011KT 24/08 A2985 RMK A01 T02380077  RH  036%=      5-min Rain = 0
KWA1 082259Z 20009KT 24/08 A2985 RMK A01 T02370077  RH  036%=      5-min Rain = 0
KWA1 082300Z 20012KT 24/08 A2985 RMK A01 T02370077  RH  036%=      5-min Rain = 0
KWA1 082301Z 21010KT 24/08 A2985 RMK A01 T02360077  RH  036%=      5-min Rain = 0
KWA1 082302Z 20013KT 24/08 A2985 RMK A01 T02360077  RH  036%=      5-min Rain = 0
KWA1 082303Z 20014KT 24/08 A2985 RMK A01 T02350076  RH  036%=      5-min Rain = 0
KWA1 082304Z 20013KT 24/08 A2985 RMK A01 T02360077  RH  036%=      5-min Rain = 0
KWA1 082305Z 20012KT 24/08 A2985 RMK A01 T02360076  RH  036%=      5-min Rain = 0
KWA1 082306Z 20012KT 24/08 A2985 RMK A01 T02360077  RH  036%=      5-min Rain = 0
KWA1 082307Z 20013KT 24/08 A2985 RMK A01 T02350077  RH  036%=      5-min Rain = 0
KWA1 082308Z 20012KT 24/08 A2985 RMK A01 T02350077  RH  036%=      5-min Rain = 0
KWA1 082309Z 20010G15KT 23/08 A2985 RMK A01 T02340077  RH  036%=      5-min Rain = 0
KWA1 082310Z 20010KT 23/08 A2985 RMK A01 T02340077  RH  037%=      5-min Rain = 0
KWA1 082311Z 20012KT 23/08 A2985 RMK A01 T02330076  RH  037%=      5-min Rain = 0
KWA1 082312Z 20012KT 23/08 A2985 RMK A01 T02320077  RH  037%=      5-min Rain = 0
KWA1 082313Z 20011KT 23/08 A2985 RMK A01 T02320077  RH  037%=      5-min Rain = 0
KWA1 082314Z 20011KT 23/08 A2985 RMK A01 T02320078  RH  037%=      5-min Rain = 0
KWA1 082315Z 20011KT 23/08 A2985 RMK A01 T02310078  RH  037%=      5-min Rain = 0
KWA1 082316Z 20011KT 23/08 A2985 RMK A01 T02310078  RH  037%=      5-min Rain = 0
KWA1 082317Z 20011KT 23/08 A2985 RMK A01 T02300078  RH  038%=      5-min Rain = 0
KWA1 082318Z 20011KT 23/08 A2985 RMK A01 T02290078  RH  038%=      5-min Rain = 0
KWA1 082319Z 20011KT 23/08 A2985 RMK A01 T02290078  RH  038%=      5-min Rain = 0
KWA1 082320Z 21012KT 23/08 A2985 RMK A01 T02290078  RH  038%=      5-min Rain = 0
KWA1 082321Z 20013KT 23/08 A2985 RMK A01 T02290078  RH  038%=      5-min Rain = 0
KWA1 082322Z 20012KT 23/08 A2985 RMK A01 T02290078  RH  038%=      5-min Rain = 0
KWA1 082323Z 20011KT 23/08 A2985 RMK A01 T02280078  RH  038%=      5-min Rain = 0
KWA1 082324Z 20012KT 23/08 A2985 RMK A01 T02280079  RH  038%=      5-min Rain = 0
KWA1 082325Z 20012KT 23/08 A2985 RMK A01 T02280079  RH  038%=      5-min Rain = 0
KWA1 082326Z 20013KT 23/08 A2985 RMK A01 T02280079  RH  038%=      5-min Rain = 0
KWA1 082327Z 20013KT 23/08 A2985 RMK A01 T02270078  RH  038%=      5-min Rain = 0
KWA1 082328Z 20013KT 23/08 A2985 RMK A01 T02270079  RH  039%=      5-min Rain = 0
KWA1 082329Z 20012KT 23/08 A2985 RMK A01 T02270079  RH  039%=      5-min Rain = 0
KWA1 082330Z 20013KT 23/08 A2985 RMK A01 T02260079  RH  039%=      5-min Rain = 0
KWA1 082331Z 20013KT 23/08 A2985 RMK A01 T02260079  RH  039%=      5-min Rain = 0
KWA1 082332Z 20012KT 23/08 A2985 RMK A01 T02260079  RH  039%=      5-min Rain = 0
KWA1 082333Z 20012KT 23/08 A2985 RMK A01 T02250079  RH  039%=      5-min Rain = 0
KWA1 082334Z 20012KT 22/08 A2985 RMK A01 T02240079  RH  039%=      5-min Rain = 0
KWA1 082335Z 20013KT 22/08 A2985 RMK A01 T02240079  RH  039%=      5-min Rain = 0
KWA1 082336Z 20012KT 22/08 A2985 RMK A01 T02230078  RH  039%=      5-min Rain = 0
KWA1 082337Z 20012KT 22/08 A2985 RMK A01 T02230079  RH  039%=      5-min Rain = 0
KWA1 082338Z 20012KT 22/08 A2985 RMK A01 T02230078  RH  039%=      5-min Rain = 0
KWA1 082339Z 20011KT 22/08 A2985 RMK A01 T02220078  RH  039%=      5-min Rain = 0
KWA1 082340Z 20012KT 22/08 A2985 RMK A01 T02220077  RH  039%=      5-min Rain = 0
KWA1 082341Z 20011KT 22/08 A2985 RMK A01 T02220077  RH  039%=      5-min Rain = 0
KWA1 082342Z 20011KT 22/08 A2985 RMK A01 T02220077  RH  039%=      5-min Rain = 0
KWA1 082343Z 20011KT 22/08 A2985 RMK A01 T02210077  RH  039%=      5-min Rain = 0
KWA1 082344Z 20011KT 22/08 A2985 RMK A01 T02210077  RH  039%=      5-min Rain = 0
KWA1 082345Z 20014KT 22/08 A2985 RMK A01 T02210076  RH  039%=      5-min Rain = 0
KWA1 082346Z 20012KT 22/08 A2985 RMK A01 T02220076  RH  039%=      5-min Rain = 0
KWA1 082347Z 20010KT 22/08 A2985 RMK A01 T02220076  RH  039%=      5-min Rain = 0
KWA1 082348Z 20011KT 22/08 A2985 RMK A01 T02210076  RH  039%=      5-min Rain = 0
KWA1 082349Z 20012KT 22/08 A2985 RMK A01 T02200076  RH  040%=      5-min Rain = 0
KWA1 082350Z 21011KT 22/08 A2985 RMK A01 T02190076  RH  040%=      5-min Rain = 0
KWA1 082351Z 20010KT 22/08 A2985 RMK A01 T02180076  RH  040%=      5-min Rain = 0
KWA1 082352Z 20011KT 22/08 A2985 RMK A01 T02180076  RH  040%=      5-min Rain = 0
KWA1 082353Z 20009KT 22/08 A2985 RMK A01 T02170076  RH  040%=      5-min Rain = 0
KWA1 082354Z 20010KT 22/08 A2985 RMK A01 T02160076  RH  041%=      5-min Rain = 0
KWA1 082355Z 20010KT 22/08 A2985 RMK A01 T02160076  RH  041%=      5-min Rain = 0
KWA1 082356Z 20010KT 22/08 A2985 RMK A01 T02150076  RH  041%=      5-min Rain = 0
KWA1 082357Z 20009KT 22/08 A2985 RMK A01 T02150076  RH  041%=      5-min Rain = 0
KWA1 082358Z 20009KT 21/08 A2985 RMK A01 T02140076  RH  041%=      5-min Rain = 0
KWA1 082359Z 20010KT 21/08 A2985 RMK A01 T02130076  RH  041%=      5-min Rain = 0
KWA1 090000Z 20009KT 21/08 A2985 RMK A01 T02130077  RH  041%=      5-min Rain = 0
KWA1 090001Z 20010KT 21/08 A2985 RMK A01 T02120076  RH  041%=      5-min Rain = 0
KWA1 090002Z 20011KT 21/08 A2985 RMK A01 T02120077  RH  042%=      5-min Rain = 0
KWA1 090003Z 20011KT 21/08 A2985 RMK A01 T02120077  RH  042%=      5-min Rain = 0
KWA1 090004Z 20009KT 21/08 A2985 RMK A01 T02120077  RH  042%=      5-min Rain = 0
KWA1 090005Z 20010KT 21/08 A2985 RMK A01 T02130077  RH  042%=      5-min Rain = 0
KWA1 090006Z 20010KT 21/08 A2985 RMK A01 T02120077  RH  042%=      5-min Rain = 0
KWA1 090007Z 20011KT 21/08 A2985 RMK A01 T02120077  RH  042%=      5-min Rain = 0
KWA1 090008Z 20010KT 21/08 A2985 RMK A01 T02130078  RH  042%=      5-min Rain = 0
KWA1 090009Z 20009KT 21/08 A2985 RMK A01 T02130078  RH  042%=      5-min Rain = 0
KWA1 090010Z 20010KT 21/08 A2985 RMK A01 T02130078  RH  042%=      5-min Rain = 0
KWA1 090011Z 20011KT 21/08 A2985 RMK A01 T02120078  RH  042%=      5-min Rain = 0
KWA1 090012Z 20010KT 21/08 A2985 RMK A01 T02120078  RH  042%=      5-min Rain = 0
KWA1 090013Z 20011KT 21/08 A2985 RMK A01 T02110078  RH  042%=      5-min Rain = 0
KWA1 090014Z 20012KT 21/08 A2985 RMK A01 T02110078  RH  042%=      5-min Rain = 0
KWA1 090015Z 20012KT 21/08 A2985 RMK A01 T02110078  RH  042%=      5-min Rain = 0
KWA1 090016Z 20012KT 21/08 A2985 RMK A01 T02120079  RH  042%=      5-min Rain = 0
KWA1 090017Z 20011KT 21/08 A2985 RMK A01 T02120079  RH  042%=      5-min Rain = 0
KWA1 090018Z 20011KT 21/08 A2985 RMK A01 T02120079  RH  042%=      5-min Rain = 0
KWA1 090019Z 20012KT 21/08 A2985 RMK A01 T02110079  RH  042%=      5-min Rain = 0
KWA1 090020Z 20013KT 21/08 A2984 RMK A01 T02100079  RH  043%=      5-min Rain = 0
KWA1 090021Z 19012KT 21/08 A2984 RMK A01 T02100079  RH  043%=      5-min Rain = 0
KWA1 090022Z 19013KT 21/08 A2984 RMK A01 T02110079  RH  043%=      5-min Rain = 0
KWA1 090023Z 19014KT 21/08 A2984 RMK A01 T02110079  RH  043%=      5-min Rain = 0
KWA1 090024Z 19014KT 21/08 A2984 RMK A01 T02110079  RH  043%=      5-min Rain = 0
KWA1 090025Z 19014KT 21/08 A2984 RMK A01 T02120079  RH  042%=      5-min Rain = 0
KWA1 090026Z 19012KT 21/08 A2984 RMK A01 T02120079  RH  042%=      5-min Rain = 0
KWA1 090027Z 20014KT 21/08 A2984 RMK A01 T02120080  RH  042%=      5-min Rain = 0
KWA1 090028Z 20014KT 21/08 A2984 RMK A01 T02120080  RH  042%=      5-min Rain = 0
KWA1 090029Z 20012KT 21/08 A2984 RMK A01 T02120080  RH  042%=      5-min Rain = 0
KWA1 090030Z 20013KT 21/08 A2985 RMK A01 T02110079  RH  043%=      5-min Rain = 0
KWA1 090031Z 20014KT 21/08 A2985 RMK A01 T02110079  RH  043%=      5-min Rain = 0
KWA1 090032Z 20013KT 21/08 A2985 RMK A01 T02110079  RH  043%=      5-min Rain = 0
KWA1 090033Z 20015KT 21/08 A2985 RMK A01 T02110079  RH  043%=      5-min Rain = 0
KWA1 090034Z 20013KT 21/08 A2985 RMK A01 T02110079  RH  043%=      5-min Rain = 0
KWA1 090035Z 20013KT 21/08 A2985 RMK A01 T02110079  RH  043%=      5-min Rain = 0
KWA1 090036Z 20012KT 21/08 A2985 RMK A01 T02110079  RH  043%=      5-min Rain = 0
KWA1 090037Z 20013KT 21/08 A2985 RMK A01 T02100079  RH  043%=      5-min Rain = 0
KWA1 090038Z 20013KT 21/08 A2985 RMK A01 T02100079  RH  043%=      5-min Rain = 0
KWA1 090039Z 20012KT 21/08 A2985 RMK A01 T02100079  RH  043%=      5-min Rain = 0
KWA1 090040Z 20013KT 21/08 A2985 RMK A01 T02100080  RH  043%=      5-min Rain = 0
KWA1 090041Z 20011KT 21/08 A2985 RMK A01 T02090079  RH  043%=      5-min Rain = 0
KWA1 090042Z 20013KT 21/08 A2985 RMK A01 T02090079  RH  043%=      5-min Rain = 0
KWA1 090043Z 20014KT 21/08 A2985 RMK A01 T02080079  RH  043%=      5-min Rain = 0
KWA1 090044Z 20012KT 21/08 A2986 RMK A01 T02090080  RH  043%=      5-min Rain = 0
KWA1 090045Z 20011KT 21/08 A2986 RMK A01 T02090080  RH  043%=      5-min Rain = 0
KWA1 090046Z 20013KT 21/08 A2986 RMK A01 T02080079  RH  044%=      5-min Rain = 0
KWA1 090047Z 20012KT 21/08 A2986 RMK A01 T02070079  RH  044%=      5-min Rain = 0
KWA1 090048Z 20012KT 21/08 A2985 RMK A01 T02070079  RH  044%=      5-min Rain = 0
KWA1 090049Z 20012KT 21/08 A2985 RMK A01 T02070080  RH  044%=      5-min Rain = 0
KWA1 090050Z 20012KT 21/08 A2985 RMK A01 T02070080  RH  044%=      5-min Rain = 0
KWA1 090051Z 20013KT 21/08 A2985 RMK A01 T02070080  RH  044%=      5-min Rain = 0
KWA1 090052Z 20011KT 21/08 A2985 RMK A01 T02070080  RH  044%=      5-min Rain = 0
KWA1 090053Z 20012KT 21/08 A2985 RMK A01 T02060079  RH  044%=      5-min Rain = 0
KWA1 090054Z 20011KT 21/08 A2985 RMK A01 T02060079  RH  044%=      5-min Rain = 0
KWA1 090055Z 20012KT 21/08 A2985 RMK A01 T02060079  RH  044%=      5-min Rain = 0
KWA1 090056Z 20011KT 21/08 A2985 RMK A01 T02060079  RH  044%=      5-min Rain = 0
KWA1 090057Z 20011KT 21/08 A2985 RMK A01 T02050079  RH  044%=      5-min Rain = 0
KWA1 090058Z 20012KT 21/08 A2986 RMK A01 T02050079  RH  044%=      5-min Rain = 0
KWA1 090059Z 21010KT 21/08 A2986 RMK A01 T02050079  RH  044%=      5-min Rain = 0
KWA1 090100Z 20011KT 21/08 A2986 RMK A01 T02050079  RH  044%=      5-min Rain = 0
KWA1 090101Z 20011KT 21/08 A2986 RMK A01 T02050079  RH  044%=      5-min Rain = 0
KWA1 090102Z 20011KT 21/08 A2986 RMK A01 T02050079  RH  044%=      5-min Rain = 0
KWA1 090103Z 20011KT 20/08 A2986 RMK A01 T02040079  RH  044%=      5-min Rain = 0
KWA1 090104Z 20012KT 20/08 A2985 RMK A01 T02040079  RH  045%=      5-min Rain = 0
KWA1 090105Z 20012KT 20/08 A2985 RMK A01 T02040079  RH  045%=      5-min Rain = 0
KWA1 090106Z 20012KT 20/08 A2985 RMK A01 T02040079  RH  045%=      5-min Rain = 0
KWA1 090107Z 20011KT 20/08 A2985 RMK A01 T02030079  RH  045%=      5-min Rain = 0
KWA1 090108Z 20012KT 20/08 A2985 RMK A01 T02030079  RH  045%=      5-min Rain = 0
KWA1 090109Z 20012KT 20/08 A2985 RMK A01 T02030079  RH  045%=      5-min Rain = 0
KWA1 090110Z 20011KT 20/08 A2985 RMK A01 T02020080  RH  045%=      5-min Rain = 0
KWA1 090111Z 20012KT 20/08 A2985 RMK A01 T02020079  RH  045%=      5-min Rain = 0
KWA1 090112Z 20012KT 20/08 A2985 RMK A01 T02020079  RH  045%=      5-min Rain = 0
KWA1 090113Z 20012KT 20/08 A2985 RMK A01 T02020079  RH  045%=      5-min Rain = 0
KWA1 090114Z 20014KT 20/08 A2985 RMK A01 T02020079  RH  045%=      5-min Rain = 0
KWA1 090115Z 20013KT 20/08 A2985 RMK A01 T02020080  RH  045%=      5-min Rain = 0
KWA1 090116Z 20014KT 20/08 A2985 RMK A01 T02020079  RH  045%=      5-min Rain = 0
KWA1 090117Z 20013KT 20/08 A2985 RMK A01 T02020079  RH  045%=      5-min Rain = 0
KWA1 090118Z 20014KT 20/08 A2985 RMK A01 T02020080  RH  045%=      5-min Rain = 0
KWA1 090119Z 20013KT 20/08 A2985 RMK A01 T02020080  RH  045%=      5-min Rain = 0
KWA1 090120Z 20015KT 20/08 A2985 RMK A01 T02020080  RH  045%=      5-min Rain = 0
KWA1 090121Z 20012KT 20/08 A2985 RMK A01 T02030080  RH  045%=      5-min Rain = 0
KWA1 090122Z 20013KT 20/08 A2985 RMK A01 T02030080  RH  045%=      5-min Rain = 0
KWA1 090123Z 20014G19KT 20/08 A2985 RMK A01 T02020080  RH  045%=      5-min Rain = 0
KWA1 090124Z 20015KT 20/08 A2985 RMK A01 T02020080  RH  045%=      5-min Rain = 0
KWA1 090125Z 20014KT 20/08 A2985 RMK A01 T02030081  RH  045%=      5-min Rain = 0
KWA1 090126Z 20014KT 20/08 A2985 RMK A01 T02030081  RH  045%=      5-min Rain = 0
KWA1 090127Z 21013KT 20/08 A2985 RMK A01 T02040081  RH  045%=      5-min Rain = 0
KWA1 090128Z 20016KT 20/08 A2985 RMK A01 T02030081  RH  045%=      5-min Rain = 0
KWA1 090129Z 21015KT 20/08 A2985 RMK A01 T02040081  RH  045%=      5-min Rain = 0
KWA1 090130Z 20016KT 20/08 A2985 RMK A01 T02040081  RH  045%=      5-min Rain = 0
KWA1 090131Z 20014KT 21/08 A2985 RMK A01 T02050082  RH  045%=      5-min Rain = 0
KWA1 090132Z 20015KT 21/08 A2985 RMK A01 T02050081  RH  045%=      5-min Rain = 0
KWA1 090133Z 21014KT 21/08 A2985 RMK A01 T02050082  RH  045%=      5-min Rain = 0
KWA1 090134Z 21014KT 20/08 A2985 RMK A01 T02040082  RH  045%=      5-min Rain = 0
KWA1 090135Z 21015KT 20/08 A2985 RMK A01 T02040082  RH  045%=      5-min Rain = 0
KWA1 090136Z 21015G20KT 20/08 A2985 RMK A01 T02040082  RH  045%=      5-min Rain = 0
KWA1 090137Z 21013KT 21/08 A2986 RMK A01 T02050082  RH  045%=      5-min Rain = 0
KWA1 090138Z 21015G20KT 21/08 A2985 RMK A01 T02050082  RH  045%=      5-min Rain = 0
KWA1 090139Z 21016KT 20/08 A2986 RMK A01 T02040082  RH  045%=      5-min Rain = 0
KWA1 090140Z 21017KT 21/08 A2986 RMK A01 T02060083  RH  045%=      5-min Rain = 0
KWA1 090141Z 21013KT 21/08 A2986 RMK A01 T02060083  RH  045%=      5-min Rain = 0
KWA1 090142Z 21016KT 21/08 A2985 RMK A01 T02060083  RH  045%=      5-min Rain = 0
KWA1 090143Z 21016KT 21/08 A2985 RMK A01 T02050083  RH  045%=      5-min Rain = 0
KWA1 090144Z 20015KT 21/08 A2985 RMK A01 T02050083  RH  045%=      5-min Rain = 0
KWA1 090145Z 21015KT 21/08 A2985 RMK A01 T02050083  RH  045%=      5-min Rain = 0
KWA1 090146Z 21017KT 21/08 A2985 RMK A01 T02050083  RH  045%=      5-min Rain = 0
KWA1 090147Z 20015KT 21/08 A2985 RMK A01 T02060084  RH  045%=      5-min Rain = 0
KWA1 090148Z 20017G23KT 21/08 A2985 RMK A01 T02060084  RH  046%=      5-min Rain = 0
KWA1 090149Z 20017KT 21/09 A2985 RMK A01 T02060085  RH  046%=      5-min Rain = 0
KWA1 090150Z 20015KT 21/09 A2985 RMK A01 T02070086  RH  046%=      5-min Rain = 0
KWA1 090151Z 20015KT 21/09 A2985 RMK A01 T02060086  RH  046%=      5-min Rain = 0
KWA1 090152Z 20018KT 21/09 A2985 RMK A01 T02060086  RH  046%=      5-min Rain = 0
KWA1 090153Z 20016KT 21/09 A2985 RMK A01 T02060086  RH  046%=      5-min Rain = 0
KWA1 090154Z 20015KT 21/09 A2985 RMK A01 T02060086  RH  046%=      5-min Rain = 0
KWA1 090155Z 21017KT 21/09 A2985 RMK A01 T02050086  RH  046%=      5-min Rain = 0
KWA1 090156Z 21016KT 21/09 A2985 RMK A01 T02050086  RH  046%=      5-min Rain = 0
KWA1 090157Z 21015KT 21/09 A2985 RMK A01 T02050087  RH  046%=      5-min Rain = 0
KWA1 090158Z 21017KT 21/09 A2985 RMK A01 T02050087  RH  047%=      5-min Rain = 0
KWA1 090159Z 21017KT 21/09 A2985 RMK A01 T02050087  RH  047%=      5-min Rain = 0
KWA1 090200Z 21015KT 21/09 A2985 RMK A01 T02050087  RH  047%=      5-min Rain = 0
KWA1 090201Z 21016KT 21/09 A2985 RMK A01 T02050087  RH  047%=      5-min Rain = 0
KWA1 090202Z 21019KT 21/09 A2985 RMK A01 T02050087  RH  047%=      5-min Rain = 0
KWA1 090203Z 21016KT 21/09 A2985 RMK A01 T02050088  RH  047%=      5-min Rain = 0
KWA1 090204Z 21016KT 21/09 A2985 RMK A01 T02050088  RH  047%=      5-min Rain = 0
KWA1 090205Z 21017KT 21/09 A2985 RMK A01 T02050088  RH  047%=      5-min Rain = 0
KWA1 090206Z 21016KT 20/09 A2985 RMK A01 T02040088  RH  047%=      5-min Rain = 0
KWA1 090207Z 21017KT 20/09 A2985 RMK A01 T02040088  RH  047%=      5-min Rain = 0
KWA1 090208Z 21017G22KT 20/09 A2985 RMK A01 T02040088  RH  047%=      5-min Rain = 0
KWA1 090209Z 21016KT 20/09 A2985 RMK A01 T02040089  RH  047%=      5-min Rain = 0
KWA1 090210Z 21015KT 20/09 A2985 RMK A01 T02030088  RH  047%=      5-min Rain = 0
KWA1 090211Z 21016G21KT 20/09 A2986 RMK A01 T02030088  RH  048%=      5-min Rain = 0
KWA1 090212Z 21017KT 20/09 A2986 RMK A01 T02030088  RH  048%=      5-min Rain = 0
KWA1 090213Z 21016G21KT 20/09 A2986 RMK A01 T02030089  RH  048%=      5-min Rain = 0
KWA1 090214Z 21017G23KT 20/09 A2986 RMK A01 T02030089  RH  048%=      5-min Rain = 0
KWA1 090215Z 21016KT 20/09 A2986 RMK A01 T02030089  RH  048%=      5-min Rain = 0
KWA1 090216Z 21016KT 20/09 A2986 RMK A01 T02030089  RH  048%=      5-min Rain = 0
KWA1 090217Z 21016G21KT 20/09 A2986 RMK A01 T02020090  RH  048%=      5-min Rain = 0
KWA1 090218Z 21016KT 20/09 A2986 RMK A01 T02020090  RH  048%=      5-min Rain = 0
KWA1 090219Z 21016KT 20/09 A2986 RMK A01 T02020090  RH  048%=      5-min Rain = 0
KWA1 090220Z 21018KT 20/09 A2986 RMK A01 T02020090  RH  049%=      5-min Rain = 0
KWA1 090221Z 21016KT 20/09 A2986 RMK A01 T02010090  RH  049%=      5-min Rain = 0
KWA1 090222Z 21017KT 20/09 A2986 RMK A01 T02020090  RH  049%=      5-min Rain = 0
KWA1 090223Z 21016KT 20/09 A2986 RMK A01 T02020090  RH  049%=      5-min Rain = 0
KWA1 090224Z 21017G22KT 20/09 A2986 RMK A01 T02010090  RH  049%=      5-min Rain = 0
KWA1 090225Z 21014KT 20/09 A2986 RMK A01 T02010090  RH  049%=      5-min Rain = 0
KWA1 090226Z 21013KT 20/09 A2986 RMK A01 T02000090  RH  049%=      5-min Rain = 0
KWA1 090227Z 21016KT 20/09 A2986 RMK A01 T01990090  RH  049%=      5-min Rain = 0
KWA1 090228Z 21016KT 20/09 A2986 RMK A01 T01990091  RH  050%=      5-min Rain = 0
KWA1 090229Z 21015G20KT 20/09 A2986 RMK A01 T01990091  RH  050%=      5-min Rain = 0
KWA1 090230Z 21016G21KT 20/09 A2986 RMK A01 T01990091  RH  050%=      5-min Rain = 0
KWA1 090231Z 21016KT 20/09 A2986 RMK A01 T01990091  RH  050%=      5-min Rain = 0
KWA1 090232Z 21016G21KT 20/09 A2986 RMK A01 T01990091  RH  050%=      5-min Rain = 0
KWA1 090233Z 21016KT 20/09 A2986 RMK A01 T01980091  RH  050%=      5-min Rain = 0
KWA1 090234Z 21017KT 20/09 A2986 RMK A01 T01990092  RH  050%=      5-min Rain = 0
KWA1 090235Z 21015KT 20/09 A2986 RMK A01 T01980092  RH  050%=      5-min Rain = 0
KWA1 090236Z 21016KT 20/09 A2986 RMK A01 T01980092  RH  050%=      5-min Rain = 0
KWA1 090237Z 21014KT 20/09 A2986 RMK A01 T01980092  RH  050%=      5-min Rain = 0
KWA1 090238Z 21015KT 20/09 A2986 RMK A01 T01970092  RH  051%=      5-min Rain = 0
KWA1 090239Z 21016G21KT 20/09 A2986 RMK A01 T01970092  RH  051%=      5-min Rain = 0
KWA1 090240Z 21017KT 20/09 A2986 RMK A01 T01960092  RH  051%=      5-min Rain = 0
KWA1 090241Z 21016G21KT 20/09 A2986 RMK A01 T01970092  RH  051%=      5-min Rain = 0
KWA1 090242Z 21017KT 20/09 A2986 RMK A01 T01970093  RH  051%=      5-min Rain = 0
KWA1 090243Z 21014G19KT 20/09 A2986 RMK A01 T01970092  RH  051%=      5-min Rain = 0
KWA1 090244Z 22015G21KT 20/09 A2986 RMK A01 T01960092  RH  051%=      5-min Rain = 0
KWA1 090245Z 21015KT 20/09 A2986 RMK A01 T01960092  RH  051%=      5-min Rain = 0
KWA1 090246Z 21014KT 20/09 A2986 RMK A01 T01950092  RH  051%=      5-min Rain = 0
KWA1 090247Z 21015KT 20/09 A2986 RMK A01 T01950092  RH  051%=      5-min Rain = 0
KWA1 090248Z 21015KT 20/09 A2986 RMK A01 T01950093  RH  052%=      5-min Rain = 0
KWA1 090249Z 21014KT 20/09 A2986 RMK A01 T01950093  RH  052%=      5-min Rain = 0
KWA1 090250Z 21015KT 20/09 A2986 RMK A01 T01950093  RH  052%=      5-min Rain = 0
KWA1 090251Z 21015KT 20/09 A2986 RMK A01 T01950093  RH  052%=      5-min Rain = 0
KWA1 090252Z 21015KT 20/09 A2986 RMK A01 T01950093  RH  052%=      5-min Rain = 0
KWA1 090253Z 21017KT 20/09 A2986 RMK A01 T01950093  RH  052%=      5-min Rain = 0
KWA1 090254Z 21016KT 20/09 A2986 RMK A01 T01950093  RH  052%=      5-min Rain = 0
KWA1 090255Z 21017KT 20/09 A2986 RMK A01 T01950093  RH  052%=      5-min Rain = 0
KWA1 090256Z 21015KT 20/09 A2986 RMK A01 T01950094  RH  052%=      5-min Rain = 0
KWA1 090257Z 21014KT 20/09 A2986 RMK A01 T01950094  RH  052%=      5-min Rain = 0
KWA1 090258Z 21014KT 19/09 A2986 RMK A01 T01940094  RH  052%=      5-min Rain = 0
KWA1 090259Z 21016KT 19/09 A2986 RMK A01 T01940094  RH  052%=      5-min Rain = 0
KWA1 090300Z 21017KT 19/09 A2986 RMK A01 T01930094  RH  052%=      5-min Rain = 0
KWA1 090301Z 21016KT 19/09 A2986 RMK A01 T01930094  RH  052%=      5-min Rain = 0
KWA1 090302Z 21017KT 19/09 A2986 RMK A01 T01930094  RH  053%=      5-min Rain = 0
KWA1 090303Z 21014G19KT 19/09 A2986 RMK A01 T01930094  RH  053%=      5-min Rain = 0
KWA1 090304Z 22017G22KT 19/09 A2986 RMK A01 T01930094  RH  053%=      5-min Rain = 0
KWA1 090305Z 21016KT 19/10 A2986 RMK A01 T01930095  RH  053%=      5-min Rain = 0
KWA1 090306Z 21015KT 19/10 A2986 RMK A01 T01930095  RH  053%=      5-min Rain = 0
KWA1 090307Z 22015G21KT 19/09 A2986 RMK A01 T01920094  RH  053%=      5-min Rain = 0
KWA1 090308Z 22017KT 19/10 A2986 RMK A01 T01930095  RH  053%=      5-min Rain = 0
KWA1 090309Z 22016G21KT 19/10 A2986 RMK A01 T01930095  RH  053%=      5-min Rain = 0
KWA1 090310Z 21015KT 19/10 A2986 RMK A01 T01920095  RH  053%=      5-min Rain = 0
KWA1 090311Z 21016KT 19/10 A2986 RMK A01 T01930095  RH  053%=      5-min Rain = 0
KWA1 090312Z 21015KT 19/10 A2986 RMK A01 T01920095  RH  053%=      5-min Rain = 0
KWA1 090313Z 22015KT 19/10 A2986 RMK A01 T01920095  RH  053%=      5-min Rain = 0
KWA1 090314Z 21014KT 19/10 A2986 RMK A01 T01910095  RH  053%=      5-min Rain = 0
KWA1 090315Z 21017KT 19/10 A2986 RMK A01 T01910095  RH  054%=      5-min Rain = 0
KWA1 090316Z 21015KT 19/10 A2986 RMK A01 T01910095  RH  054%=      5-min Rain = 0
KWA1 090317Z 21016KT 19/10 A2987 RMK A01 T01910095  RH  054%=      5-min Rain = 0
KWA1 090318Z 22014KT 19/10 A2987 RMK A01 T01900095  RH  054%=      5-min Rain = 0
KWA1 090319Z 22016KT 19/10 A2987 RMK A01 T01900095  RH  054%=      5-min Rain = 0
KWA1 090320Z 22015KT 19/10 A2987 RMK A01 T01900095  RH  054%=      5-min Rain = 0
KWA1 090321Z 22013G19KT 19/10 A2987 RMK A01 T01900095  RH  054%=      5-min Rain = 0
KWA1 090322Z 21018KT 19/10 A2987 RMK A01 T01890095  RH  054%=      5-min Rain = 0
KWA1 090323Z 21016KT 19/10 A2987 RMK A01 T01890095  RH  054%=      5-min Rain = 0
KWA1 090324Z 21016KT 19/10 A2987 RMK A01 T01890096  RH  054%=      5-min Rain = 0
KWA1 090325Z 21015KT 19/10 A2987 RMK A01 T01890095  RH  055%=      5-min Rain = 0
KWA1 090326Z 21015KT 19/10 A2987 RMK A01 T01890096  RH  055%=      5-min Rain = 0
KWA1 090327Z 22016KT 19/10 A2987 RMK A01 T01880096  RH  055%=      5-min Rain = 0
KWA1 090328Z 21015G21KT 19/10 A2987 RMK A01 T01880096  RH  055%=      5-min Rain = 0
KWA1 090329Z 22015KT 19/10 A2987 RMK A01 T01880096  RH  055%=      5-min Rain = 0
KWA1 090330Z 21016KT 19/10 A2987 RMK A01 T01880096  RH  055%=      5-min Rain = 0
KWA1 090331Z 21014G19KT 19/10 A2987 RMK A01 T01880097  RH  055%=      5-min Rain = 0
KWA1 090332Z 21014G19KT 19/10 A2987 RMK A01 T01880097  RH  056%=      5-min Rain = 0
KWA1 090333Z 22015KT 19/10 A2987 RMK A01 T01870097  RH  056%=      5-min Rain = 0
KWA1 090334Z 22014KT 19/10 A2987 RMK A01 T01870097  RH  056%=      5-min Rain = 0
KWA1 090335Z 22015KT 19/10 A2987 RMK A01 T01870097  RH  056%=      5-min Rain = 0
KWA1 090336Z 22014KT 19/10 A2987 RMK A01 T01870097  RH  056%=      5-min Rain = 0
KWA1 090337Z 22015KT 19/10 A2987 RMK A01 T01870098  RH  056%=      5-min Rain = 0
KWA1 090338Z 22014KT 19/10 A2987 RMK A01 T01870098  RH  056%=      5-min Rain = 0
KWA1 090339Z 22014G19KT 19/10 A2987 RMK A01 T01860097  RH  056%=      5-min Rain = 0
KWA1 090340Z 22014G20KT 19/10 A2987 RMK A01 T01860098  RH  057%=      5-min Rain = 0
KWA1 090341Z 22013KT 19/10 A2987 RMK A01 T01860098  RH  057%=      5-min Rain = 0
KWA1 090342Z 21015KT 19/10 A2987 RMK A01 T01860099  RH  057%=      5-min Rain = 0
KWA1 090343Z 21015KT 19/10 A2987 RMK A01 T01850099  RH  057%=      5-min Rain = 0
KWA1 090344Z 22015KT 19/10 A2987 RMK A01 T01860099  RH  057%=      5-min Rain = 0
KWA1 090345Z 21013KT 19/10 A2987 RMK A01 T01850099  RH  057%=      5-min Rain = 0
KWA1 090346Z 22014KT 19/10 A2987 RMK A01 T01850099  RH  057%=      5-min Rain = 0
KWA1 090347Z 22014KT 19/10 A2987 RMK A01 T01850099  RH  058%=      5-min Rain = 0
KWA1 090348Z 22015KT 19/10 A2987 RMK A01 T01850100  RH  058%=      5-min Rain = 0
KWA1 090349Z 22014KT 19/10 A2987 RMK A01 T01850100  RH  058%=      5-min Rain = 0
KWA1 090350Z 22015KT 19/10 A2987 RMK A01 T01850100  RH  058%=      5-min Rain = 0
KWA1 090351Z 22015KT 19/10 A2987 RMK A01 T01850100  RH  058%=      5-min Rain = 0
KWA1 090352Z 21016G21KT 19/10 A2987 RMK A01 T01850101  RH  058%=      5-min Rain = 0
KWA1 090353Z 21015KT 19/10 A2987 RMK A01 T01850101  RH  058%=      5-min Rain = 0
KWA1 090354Z 21014KT 19/10 A2987 RMK A01 T01850101  RH  058%=      5-min Rain = 0
KWA1 090355Z 21015KT 19/10 A2987 RMK A01 T01850102  RH  058%=      5-min Rain = 0
KWA1 090356Z 22015G20KT 19/10 A2986 RMK A01 T01850102  RH  058%=      5-min Rain = 0
KWA1 090357Z 21016KT 19/10 A2986 RMK A01 T01850103  RH  059%=      5-min Rain = 0
KWA1 090358Z 21014KT 19/10 A2986 RMK A01 T01860103  RH  059%=      5-min Rain = 0
KWA1 090359Z 21016KT 19/10 A2986 RMK A01 T01860103  RH  059%=      5-min Rain = 0
KWA1 090400Z 21015KT 19/10 A2986 RMK A01 T01860104  RH  059%=      5-min Rain = 0
KWA1 090401Z 21016KT 19/10 A2986 RMK A01 T01860104  RH  059%=      5-min Rain = 0
KWA1 090402Z 21016KT 19/10 A2986 RMK A01 T01860104  RH  059%=      5-min Rain = 0
KWA1 090403Z 21015KT 19/10 A2986 RMK A01 T01860104  RH  059%=      5-min Rain = 0
KWA1 090404Z 21015KT 19/10 A2986 RMK A01 T01860104  RH  059%=      5-min Rain = 0
KWA1 090405Z 21014KT 19/10 A2986 RMK A01 T01850104  RH  059%=      5-min Rain = 0
KWA1 090406Z 21015KT 19/10 A2986 RMK A01 T01850104  RH  059%=      5-min Rain = 0
KWA1 090407Z 22015KT 19/11 A2986 RMK A01 T01860105  RH  059%=      5-min Rain = 0
KWA1 090408Z 21017KT 19/11 A2986 RMK A01 T01860105  RH  059%=      5-min Rain = 0
KWA1 090409Z 21014KT 19/11 A2986 RMK A01 T01860105  RH  059%=      5-min Rain = 0
KWA1 090410Z 21015KT 19/11 A2986 RMK A01 T01860105  RH  059%=      5-min Rain = 0
KWA1 090411Z 21014KT 19/11 A2986 RMK A01 T01850105  RH  059%=      5-min Rain = 0
KWA1 090412Z 21015G20KT 19/11 A2986 RMK A01 T01850105  RH  060%=      5-min Rain = 0
KWA1 090413Z 21014KT 19/11 A2986 RMK A01 T01850106  RH  060%=      5-min Rain = 0
KWA1 090414Z 21014KT 19/11 A2986 RMK A01 T01850105  RH  060%=      5-min Rain = 0
KWA1 090415Z 21014KT 19/11 A2986 RMK A01 T01850106  RH  060%=      5-min Rain = 0
KWA1 090416Z 21017G23KT 19/11 A2986 RMK A01 T01850106  RH  060%=      5-min Rain = 0
KWA1 090417Z 21016KT 19/11 A2986 RMK A01 T01850106  RH  060%=      5-min Rain = 0
KWA1 090418Z 21017KT 19/11 A2986 RMK A01 T01850106  RH  060%=      5-min Rain = 0
KWA1 090419Z 21016KT 19/11 A2986 RMK A01 T01850106  RH  060%=      5-min Rain = 0
KWA1 090420Z 22015KT 19/11 A2986 RMK A01 T01850106  RH  060%=      5-min Rain = 0
KWA1 090421Z 21014KT 19/11 A2986 RMK A01 T01850106  RH  060%=      5-min Rain = 0
KWA1 090422Z 22014KT 19/11 A2986 RMK A01 T01850106  RH  060%=      5-min Rain = 0
KWA1 090423Z 22014KT 18/11 A2986 RMK A01 T01840106  RH  060%=      5-min Rain = 0
KWA1 090424Z 22014KT 18/11 A2986 RMK A01 T01840106  RH  060%=      5-min Rain = 0
KWA1 090425Z 22013KT 18/11 A2987 RMK A01 T01840106  RH  060%=      5-min Rain = 0
KWA1 090426Z 22016KT 18/11 A2986 RMK A01 T01840106  RH  061%=      5-min Rain = 0
KWA1 090427Z 22013KT 18/11 A2986 RMK A01 T01840106  RH  061%=      5-min Rain = 0
KWA1 090428Z 22015KT 18/11 A2987 RMK A01 T01840106  RH  061%=      5-min Rain = 0
KWA1 090429Z 22015KT 18/11 A2986 RMK A01 T01840107  RH  061%=      5-min Rain = 0
KWA1 090430Z 22015KT 18/11 A2986 RMK A01 T01840106  RH  061%=      5-min Rain = 0
KWA1 090431Z 22015KT 18/11 A2987 RMK A01 T01830106  RH  061%=      5-min Rain = 0
KWA1 090432Z 22015KT 18/11 A2987 RMK A01 T01830106  RH  061%=      5-min Rain = 0
KWA1 090433Z 22016KT 18/11 A2986 RMK A01 T01820106  RH  061%=      5-min Rain = 0
KWA1 090434Z 22014KT 18/11 A2987 RMK A01 T01820106  RH  061%=      5-min Rain = 0
KWA1 090435Z 22013KT 18/11 A2987 RMK A01 T01820106  RH  061%=      5-min Rain = 0
KWA1 090436Z 22013KT 18/11 A2986 RMK A01 T01810106  RH  061%=      5-min Rain = 0
KWA1 090437Z 22015KT 18/11 A2987 RMK A01 T01810106  RH  062%=      5-min Rain = 0
KWA1 090438Z 22014KT 18/11 A2987 RMK A01 T01810106  RH  062%=      5-min Rain = 0
KWA1 090439Z 22013KT 18/11 A2987 RMK A01 T01800106  RH  062%=      5-min Rain = 0
KWA1 090440Z 22013KT 18/11 A2987 RMK A01 T01800106  RH  062%=      5-min Rain = 0
KWA1 090441Z 22013KT 18/11 A2987 RMK A01 T01800106  RH  062%=      5-min Rain = 0
KWA1 090442Z 22013KT 18/11 A2987 RMK A01 T01790106  RH  062%=      5-min Rain = 0
KWA1 090443Z 22013KT 18/11 A2987 RMK A01 T01790106  RH  062%=      5-min Rain = 0
KWA1 090444Z 22013KT 18/11 A2987 RMK A01 T01790106  RH  062%=      5-min Rain = 0
KWA1 090445Z 23013KT 18/11 A2987 RMK A01 T01790106  RH  062%=      5-min Rain = 0
KWA1 090446Z 23014KT 18/11 A2987 RMK A01 T01780106  RH  062%=      5-min Rain = 0
KWA1 090447Z 23014KT 18/11 A2987 RMK A01 T01780106  RH  062%=      5-min Rain = 0
KWA1 090448Z 22012KT 18/11 A2987 RMK A01 T01780106  RH  062%=      5-min Rain = 0
KWA1 090449Z 23012KT 18/11 A2987 RMK A01 T01780105  RH  063%=      5-min Rain = 0
KWA1 090450Z 23012KT 18/11 A2987 RMK A01 T01770105  RH  063%=      5-min Rain = 0
KWA1 090451Z 23012KT 18/11 A2987 RMK A01 T01770106  RH  063%=      5-min Rain = 0
KWA1 090452Z 23013KT 18/11 A2987 RMK A01 T01770106  RH  063%=      5-min Rain = 0
KWA1 090453Z 23011KT 18/11 A2987 RMK A01 T01770106  RH  063%=      5-min Rain = 0
KWA1 090454Z 23012KT 18/11 A2987 RMK A01 T01770106  RH  063%=      5-min Rain = 0
KWA1 090455Z 23013KT 18/11 A2987 RMK A01 T01770106  RH  063%=      5-min Rain = 0
KWA1 090456Z 23012KT 18/11 A2987 RMK A01 T01760106  RH  063%=      5-min Rain = 0
KWA1 090457Z 23012KT 18/11 A2987 RMK A01 T01760106  RH  063%=      5-min Rain = 0
KWA1 090458Z 23013KT 18/11 A2987 RMK A01 T01760105  RH  063%=      5-min Rain = 0
KWA1 090459Z 23012KT 18/11 A2987 RMK A01 T01750105  RH  063%=      5-min Rain = 0
KWA1 090500Z 24012KT 18/11 A2987 RMK A01 T01750105  RH  064%=      5-min Rain = 0
KWA1 090501Z 23011KT 17/11 A2987 RMK A01 T01740105  RH  064%=      5-min Rain = 0
KWA1 090502Z 23011KT 17/11 A2987 RMK A01 T01740105  RH  064%=      5-min Rain = 0
KWA1 090503Z 23012KT 17/11 A2987 RMK A01 T01730105  RH  064%=      5-min Rain = 0
KWA1 090504Z 23012KT 17/11 A2987 RMK A01 T01730105  RH  064%=      5-min Rain = 0
KWA1 090505Z 24012KT 17/11 A2987 RMK A01 T01730105  RH  064%=      5-min Rain = 0
KWA1 090506Z 23011KT 17/11 A2987 RMK A01 T01730105  RH  064%=      5-min Rain = 0
KWA1 090507Z 24012KT 17/11 A2987 RMK A01 T01730105  RH  064%=      5-min Rain = 0
KWA1 090508Z 24011KT 17/11 A2987 RMK A01 T01730105  RH  064%=      5-min Rain = 0
KWA1 090509Z 23012KT 17/11 A2987 RMK A01 T01730105  RH  064%=      5-min Rain = 0
KWA1 090510Z 23012KT 17/11 A2987 RMK A01 T01720105  RH  065%=      5-min Rain = 0
KWA1 090511Z 23014KT 17/11 A2987 RMK A01 T01720105  RH  065%=      5-min Rain = 0
KWA1 090512Z 23012KT 17/11 A2987 RMK A01 T01730106  RH  065%=      5-min Rain = 0
KWA1 090513Z 23014KT 17/11 A2987 RMK A01 T01730106  RH  065%=      5-min Rain = 0
KWA1 090514Z 24013KT 17/11 A2987 RMK A01 T01730106  RH  065%=      5-min Rain = 0
KWA1 090515Z 23013KT 17/11 A2987 RMK A01 T01730106  RH  065%=      5-min Rain = 0
KWA1 090516Z 23012KT 17/11 A2987 RMK A01 T01730106  RH  065%=      5-min Rain = 0
KWA1 090517Z 23014KT 17/11 A2987 RMK A01 T01730106  RH  065%=      5-min Rain = 0
KWA1 090518Z 23013KT 17/11 A2987 RMK A01 T01730106  RH  065%=      5-min Rain = 0
KWA1 090519Z 23013KT 17/11 A2987 RMK A01 T01720106  RH  065%=      5-min Rain = 0
KWA1 090520Z 23015KT 17/11 A2987 RMK A01 T01720106  RH  065%=      5-min Rain = 0
KWA1 090521Z 23013KT 17/11 A2987 RMK A01 T01720106  RH  065%=      5-min Rain = 0
KWA1 090522Z 23013KT 17/11 A2987 RMK A01 T01720106  RH  065%=      5-min Rain = 0
KWA1 090523Z 23012KT 17/11 A2987 RMK A01 T01730107  RH  065%=      5-min Rain = 0
KWA1 090524Z 23014KT 17/11 A2987 RMK A01 T01720106  RH  065%=      5-min Rain = 0
KWA1 090525Z 23012KT 17/11 A2987 RMK A01 T01720106  RH  065%=      5-min Rain = 0
KWA1 090526Z 23013KT 17/11 A2987 RMK A01 T01710106  RH  065%=      5-min Rain = 0
KWA1 090527Z 23013KT 17/11 A2987 RMK A01 T01710106  RH  066%=      5-min Rain = 0
KWA1 090528Z 22013KT 17/11 A2987 RMK A01 T01710106  RH  066%=      5-min Rain = 0
KWA1 090529Z 22014KT 17/11 A2987 RMK A01 T01710107  RH  066%=      5-min Rain = 0
KWA1 090530Z 22013KT 17/11 A2987 RMK A01 T01720107  RH  066%=      5-min Rain = 0
KWA1 090531Z 23012KT 17/11 A2987 RMK A01 T01720107  RH  066%=      5-min Rain = 0
KWA1 090532Z 23014G19KT 17/11 A2987 RMK A01 T01720107  RH  066%=      5-min Rain = 0
KWA1 090533Z 23014KT 17/11 A2987 RMK A01 T01710107  RH  066%=      5-min Rain = 0
KWA1 090534Z 23013KT 17/11 A2987 RMK A01 T01720107  RH  066%=      5-min Rain = 0
KWA1 090535Z 23013KT 17/11 A2987 RMK A01 T01720107  RH  066%=      5-min Rain = 0
KWA1 090536Z 24012KT 17/11 A2987 RMK A01 T01710107  RH  066%=      5-min Rain = 0
KWA1 090537Z 24012G17KT 17/11 A2987 RMK A01 T01700107  RH  066%=      5-min Rain = 0
KWA1 090538Z 23013KT 17/11 A2987 RMK A01 T01700107  RH  066%=      5-min Rain = 0
KWA1 090539Z 23014KT 17/11 A2987 RMK A01 T01700107  RH  066%=      5-min Rain = 0
KWA1 090540Z 23013KT 17/11 A2987 RMK A01 T01700107  RH  066%=      5-min Rain = 0
KWA1 090541Z 22013KT 17/11 A2987 RMK A01 T01690107  RH  066%=      5-min Rain = 0
KWA1 090542Z 22013KT 17/11 A2987 RMK A01 T01700107  RH  067%=      5-min Rain = 0
KWA1 090543Z 22014KT 17/11 A2987 RMK A01 T01700107  RH  067%=      5-min Rain = 0
KWA1 090544Z 22014KT 17/11 A2987 RMK A01 T01700107  RH  067%=      5-min Rain = 0
KWA1 090545Z 22015KT 17/11 A2987 RMK A01 T01700107  RH  067%=      5-min Rain = 0
KWA1 090546Z 22015KT 17/11 A2987 RMK A01 T01700107  RH  067%=      5-min Rain = 0
KWA1 090547Z 22016KT 17/11 A2987 RMK A01 T01700107  RH  067%=      5-min Rain = 0
KWA1 090548Z 22016KT 17/11 A2987 RMK A01 T01700107  RH  067%=      5-min Rain = 0
KWA1 090549Z 22015KT 17/11 A2987 RMK A01 T01700107  RH  067%=      5-min Rain = 0
KWA1 090550Z 22016KT 17/11 A2987 RMK A01 T01700108  RH  067%=      5-min Rain = 0
KWA1 090551Z 22016KT 17/11 A2987 RMK A01 T01700108  RH  067%=      5-min Rain = 0
KWA1 090552Z 22015G20KT 17/11 A2987 RMK A01 T01700107  RH  067%=      5-min Rain = 0
KWA1 090553Z 22015KT 17/11 A2987 RMK A01 T01700107  RH  067%=      5-min Rain = 0
KWA1 090554Z 22015KT 17/11 A2987 RMK A01 T01700108  RH  067%=      5-min Rain = 0
KWA1 090555Z 22014KT 17/11 A2987 RMK A01 T01700108  RH  067%=      5-min Rain = 0
KWA1 090556Z 22014KT 17/11 A2987 RMK A01 T01690108  RH  067%=      5-min Rain = 0
KWA1 090557Z 22015KT 17/11 A2987 RMK A01 T01690107  RH  067%=      5-min Rain = 0
KWA1 090558Z 22015KT 17/11 A2987 RMK A01 T01690108  RH  067%=      5-min Rain = 0
KWA1 090559Z 22016KT 17/11 A2987 RMK A01 T01690108  RH  067%=      5-min Rain = 0

Page generated in 0.0751 seconds.